GFSWCAN_850_spd_027.txt.gz
Wind_Speed
9 10 12 9 11 15 17 21 20 18 18 17 14 11 14 8 13 13 11 12 10 5 14 14 11 8 8 6 2 3 0 2 2 3 3 3 3 5 4 5 6 8 7 4 5 3 7 6 5 5 3 2 8 9
10 11 11 12 14 15 17 18 20 17 17 18 16 9 14 8 8 13 12 10 13 11 12 25 32 31 28 22 9 5 4 3 8 3 1 2 2 2 5 3 2 4 6 5 7 5 5 6 2 6 12 14 11 7
10 12 13 14 16 17 19 19 18 17 18 18 20 11 10 14 12 15 12 12 15 10 25 15 3 5 12 19 29 10 6 5 2 2 5 2 3 3 4 5 4 3 6 3 2 3 8 17 11 4 6 3 5 9
13 14 14 15 16 17 17 21 18 17 16 17 18 18 10 14 17 17 16 14 13 9 5 8 8 9 9 9 22 34 29 7 7 4 4 2 3 5 3 2 3 5 7 5 4 5 6 1 8 6 9 13 14 15
14 15 16 14 16 20 20 19 17 17 17 18 21 15 11 15 22 21 17 17 15 10 4 13 27 12 7 21 18 16 21 26 15 7 3 3 4 4 0 1 3 7 6 4 4 6 2 6 10 16 19 18 18 18
11 12 16 16 18 21 20 16 15 17 16 18 20 13 18 23 12 8 3 2 7 2 5 4 9 11 10 8 20 29 32 17 12 7 5 5 5 6 3 4 5 10 8 7 4 2 10 15 15 10 12 13 9 11
15 12 13 14 17 19 16 13 15 15 14 17 16 18 21 10 7 3 2 2 9 8 3 6 7 6 11 4 8 14 24 15 9 9 5 5 6 10 3 3 6 11 12 8 7 10 11 6 7 17 18 15 13 12
16 17 18 16 17 17 12 11 14 15 15 18 21 18 11 6 5 3 4 6 7 4 3 3 4 6 6 5 5 9 13 14 10 6 5 3 7 3 3 5 9 9 7 6 8 6 11 19 20 19 15 13 11 11
12 11 10 14 17 8 10 10 11 14 15 22 19 12 7 3 2 2 5 8 8 5 1 2 3 3 5 5 2 7 8 4 7 3 4 6 2 4 4 7 11 8 4 5 11 14 14 11 14 12 11 10 11 11
8 9 9 12 8 9 7 8 11 13 17 19 9 3 2 2 6 8 2 1 5 3 5 4 5 3 5 0 0 8 7 2 2 3 8 2 3 3 5 6 7 5 5 7 10 9 13 13 12 11 12 13 13 11
6 5 4 7 5 6 6 8 11 15 18 10 5 3 6 9 5 1 2 3 3 3 5 7 8 4 5 3 2 2 2 2 1 1 1 2 3 3 6 5 4 5 6 6 8 8 11 14 15 15 14 12 14 13
3 5 4 4 2 3 7 8 11 14 16 15 10 10 5 3 1 1 2 2 3 2 3 6 7 7 7 5 2 3 2 1 1 2 1 2 1 5 4 3 2 3 4 3 4 7 9 11 11 11 10 7 8 10
3 3 6 5 4 3 7 9 11 13 19 7 2 3 2 0 2 0 2 2 2 7 6 11 6 5 5 4 1 0 2 2 2 2 3 2 6 6 4 3 3 4 2 2 3 4 6 7 6 7 6 4 2 2
3 4 3 6 9 5 8 9 10 12 9 3 3 5 1 2 2 1 2 2 5 7 14 17 7 4 3 2 1 1 1 1 0 2 4 3 10 8 6 6 6 7 7 7 5 5 6 6 7 7 5 4 4 3
5 5 6 5 11 6 7 9 8 10 4 2 1 2 3 5 6 9 11 8 10 11 10 9 8 5 2 2 1 1 1 3 3 3 2 11 13 9 6 5 5 6 7 8 9 10 9 6 4 5 5 4 5 5
5 7 7 6 10 8 8 8 9 6 2 2 3 2 5 4 5 3 6 8 8 11 13 5 3 3 3 1 2 4 2 4 3 3 8 16 14 10 5 4 3 4 6 8 8 9 10 10 9 8 6 6 5 5
5 5 2 6 11 8 8 8 5 3 3 4 5 9 12 14 12 8 5 5 9 8 2 3 3 2 2 1 2 2 4 3 3 7 16 14 14 10 5 2 2 4 6 7 8 8 9 9 9 9 8 7 6 5
6 4 6 8 9 11 12 7 4 5 6 8 5 2 8 11 11 11 8 10 5 3 4 2 6 2 3 2 3 3 4 2 6 13 13 12 11 9 5 2 1 4 7 8 8 8 8 8 8 9 9 8 7 6
3 6 7 7 14 13 4 5 6 5 9 5 9 13 12 14 15 15 15 13 10 9 7 4 4 3 3 5 4 3 7 10 11 14 13 11 9 7 5 3 3 5 6 7 7 8 9 9 10 11 11 10 8 7
7 8 9 10 15 10 4 4 6 5 5 4 7 6 7 8 11 10 12 11 9 4 5 4 5 5 6 4 5 6 5 12 12 15 15 14 11 9 7 4 4 4 5 6 7 8 8 8 9 10 10 11 10 8
12 15 13 12 18 13 3 4 6 5 4 6 5 5 5 9 10 8 10 12 10 7 5 18 24 21 15 13 12 11 8 11 17 15 9 12 12 11 8 6 5 5 6 8 9 9 10 10 11 11 11 11 11 10
14 14 16 16 8 4 6 8 5 4 4 4 4 5 5 4 4 3 5 9 8 14 17 22 27 25 23 26 23 18 14 12 16 16 13 10 11 12 10 7 5 5 7 9 10 10 11 12 13 13 13 12 12 11
10 10 10 7 7 6 4 6 5 4 2 2 3 3 3 4 3 3 5 9 12 18 20 23 24 24 23 21 20 19 17 16 17 16 13 11 10 9 8 7 7 7 10 11 13 13 14 14 13 13 13 14 14 12
11 8 5 5 10 3 4 5 4 3 2 2 1 4 4 3 2 2 4 7 14 18 17 18 19 21 19 20 21 19 17 17 16 15 15 14 12 10 9 10 11 11 13 15 17 16 16 16 16 15 15 15 15 15
6 9 6 6 8 5 3 1 2 2 4 3 2 4 3 2 1 2 3 7 8 15 16 14 12 13 16 14 12 11 14 17 17 15 14 13 11 12 13 14 15 15 17 19 18 18 17 17 18 19 19 19 19 17
6 10 11 8 6 7 7 5 6 6 3 3 6 2 2 2 1 6 3 6 12 16 14 14 8 5 7 10 8 6 8 12 14 15 15 15 15 16 15 17 18 17 18 20 21 18 18 20 20 20 19 19 20 21
5 7 9 8 6 5 3 2 3 2 4 5 3 3 2 2 6 5 7 6 9 13 13 8 1 4 4 3 4 5 6 8 10 11 11 12 14 16 17 18 20 22 24 22 21 22 23 23 23 22 21 20 20 20
10 9 7 12 8 7 4 3 5 5 4 6 8 4 6 8 5 2 4 5 9 11 13 11 8 7 6 6 6 7 8 9 11 12 15 17 19 20 20 21 21 20 21 23 21 23 25 26 25 24 23 23 21 17
6 7 10 4 3 6 10 8 7 9 7 14 5 4 6 8 12 16 18 17 17 16 13 14 14 14 14 14 14 14 15 15 15 16 17 19 22 22 22 20 19 18 19 22 24 25 26 26 25 24 23 23 22 21
7 14 7 6 6 7 11 15 8 13 14 17 14 14 19 29 33 33 33 33 33 33 30 27 27 27 25 24 24 24 23 22 21 20 21 23 22 20 18 18 20 21 22 24 24 23 21 21 21 22 22 24 25 25
10 20 7 9 7 12 17 17 19 19 19 20 23 25 32 34 40 42 39 36 33 32 31 31 32 30 29 28 27 25 24 22 22 22 23 21 19 19 20 21 21 21 21 22 22 19 18 19 21 20 19 19 18 18
18 18 11 4 6 14 13 8 7 9 11 16 19 23 24 20 21 32 28 25 26 26 22 23 24 21 19 20 20 20 20 20 21 19 18 18 20 20 21 21 21 19 18 17 17 17 18 20 19 18 19 18 16 15
8 10 7 3 3 4 8 6 4 5 7 7 13 21 21 14 12 20 27 30 29 27 23 20 18 15 11 9 10 12 11 11 12 15 17 19 21 22 22 20 17 13 12 13 15 16 16 16 16 14 13 12 11 10

GFSWCAN_850_spd_030.txt.gz
Wind_Speed
3 3 5 5 6 8 10 14 16 16 16 17 18 15 9 7 7 10 14 11 10 5 13 11 9 6 5 5 3 3 2 3 1 5 3 3 4 5 4 4 6 9 7 5 6 4 8 7 5 4 4 2 2 4
4 6 6 6 8 12 13 15 16 16 15 17 17 20 5 9 13 8 12 12 12 10 11 21 25 24 22 14 3 3 3 3 3 4 2 2 3 4 5 4 5 7 6 4 8 5 1 8 2 2 6 6 5 4
5 6 8 9 10 11 12 13 17 16 14 14 16 17 19 12 10 14 11 13 15 10 22 9 4 9 5 16 25 8 5 5 1 1 2 1 5 4 6 6 7 8 9 3 4 8 13 7 9 5 3 3 2 5
5 6 8 9 11 13 13 14 16 16 14 16 16 19 15 8 12 14 18 15 12 6 5 7 10 10 4 7 11 23 24 5 6 7 4 4 4 7 3 0 6 3 11 9 7 6 3 8 9 6 3 8 11 13
4 5 7 8 10 13 15 18 16 14 15 14 16 18 14 14 21 18 13 12 12 10 4 12 24 4 4 12 18 17 21 23 12 5 4 4 4 3 1 2 4 9 6 7 4 5 7 3 8 7 11 11 13 15
3 5 6 7 9 11 15 17 13 12 13 14 14 16 14 20 13 10 2 1 5 8 4 4 6 7 4 3 9 17 14 10 6 6 6 10 4 7 5 4 5 15 11 9 4 8 6 5 9 12 10 10 13 13
6 7 9 10 12 12 14 10 13 12 11 12 14 18 15 14 8 4 2 2 7 7 4 5 7 3 5 4 4 10 11 7 9 5 6 9 7 10 2 4 3 11 11 11 10 7 7 8 3 6 14 18 16 14
9 7 6 7 10 13 13 9 9 9 14 14 17 21 10 7 7 6 6 6 6 5 2 2 4 5 6 4 4 7 6 11 12 7 5 6 4 3 4 6 5 9 10 9 10 10 9 10 15 16 15 14 14 13
6 2 2 5 9 11 7 6 8 11 12 16 19 14 4 2 2 3 7 9 7 5 2 3 3 3 3 6 5 10 8 5 7 4 6 6 3 5 5 8 12 11 7 5 9 9 12 13 13 14 13 12 13 12
6 2 1 3 6 3 4 5 7 11 15 16 10 2 1 1 7 12 2 2 5 2 3 3 3 3 5 5 8 5 7 3 3 5 6 4 3 2 4 5 11 10 8 6 5 5 7 9 11 11 12 13 15 15
2 2 3 2 3 3 3 6 9 12 13 8 6 2 4 12 4 1 2 3 3 3 4 6 6 5 7 4 3 9 2 2 3 3 3 4 3 3 7 8 7 6 6 7 7 7 6 9 13 15 14 12 14 14
3 4 5 1 2 3 4 6 9 10 10 13 7 5 4 3 2 1 2 2 3 2 4 5 9 11 8 6 3 1 1 1 0 2 1 2 1 5 7 6 5 4 5 5 6 5 6 7 10 10 11 10 8 8
3 5 7 4 2 5 6 7 10 12 16 3 2 2 2 2 2 3 5 2 4 7 5 11 6 5 6 4 2 2 2 1 2 0 2 1 3 5 6 5 3 2 3 4 4 3 4 5 6 7 6 4 3 1
4 7 6 5 6 5 5 6 11 12 8 3 2 3 1 1 2 3 2 3 6 6 14 16 8 5 5 3 2 1 0 1 1 2 3 2 10 9 7 6 5 5 4 4 2 1 1 3 2 6 8 6 5 3
5 6 5 6 7 8 6 6 9 11 4 3 1 1 3 3 5 7 9 8 9 11 12 9 8 6 3 3 1 1 2 3 3 3 1 6 13 11 9 8 7 5 5 5 5 5 6 5 5 5 6 6 6 6
5 6 8 6 6 10 7 7 9 10 3 3 4 2 5 2 4 3 8 9 5 10 13 4 3 3 3 2 2 3 2 4 2 2 3 16 16 12 9 8 6 4 4 4 4 5 6 6 6 6 7 7 7 7
5 6 6 7 8 9 7 7 6 3 3 3 5 10 10 10 10 7 5 5 7 8 2 3 4 2 4 3 2 2 3 1 3 4 10 16 16 13 9 6 4 3 3 4 4 5 6 6 7 7 7 7 7 7
9 6 8 8 8 7 7 7 4 4 5 7 5 5 10 12 9 9 8 8 6 2 2 2 4 3 3 3 2 1 4 5 3 5 12 13 13 10 7 5 2 0 3 4 4 5 5 6 6 8 8 8 8 8
7 9 8 9 7 11 2 4 6 5 8 6 8 13 13 14 17 15 14 11 10 8 5 4 4 4 4 5 3 5 5 5 4 9 11 11 11 10 8 6 4 3 3 4 5 5 6 7 8 9 10 9 9 8
9 9 10 10 8 4 4 4 6 6 5 4 5 6 9 9 12 11 10 11 10 5 5 5 6 7 7 6 3 2 7 8 9 11 13 14 13 12 10 8 6 5 4 4 5 6 7 8 9 9 10 11 10 9
13 13 16 11 13 13 5 5 7 5 5 5 5 4 7 11 11 7 6 10 10 7 6 18 26 28 25 22 18 16 16 17 18 16 11 12 16 14 12 10 8 7 5 5 6 7 8 9 9 10 10 10 10 10
12 16 15 12 6 6 8 9 5 3 4 4 3 4 6 5 4 3 4 8 8 12 13 20 26 27 24 24 28 27 23 16 13 15 17 15 12 15 15 13 11 8 6 5 7 8 9 10 10 11 11 10 9 10
11 11 10 6 7 5 4 6 6 4 2 1 2 3 4 4 3 4 5 8 10 17 17 19 21 23 25 23 22 21 20 18 20 18 18 16 14 12 12 13 12 9 8 7 8 10 11 12 12 11 12 12 12 12
14 8 6 7 10 3 4 5 4 3 2 2 2 4 3 4 2 2 4 6 12 14 13 14 18 20 18 19 18 16 17 19 18 17 17 17 15 14 12 12 12 11 11 12 12 13 13 13 13 13 13 13 13 14
7 9 8 6 7 5 5 2 2 2 4 4 4 4 2 1 1 3 3 7 7 12 14 13 15 14 14 13 12 10 10 13 17 18 17 15 14 14 14 14 14 13 15 15 15 16 16 16 15 14 15 16 17 17
5 10 11 11 6 6 6 5 6 7 4 4 6 2 1 1 0 6 4 5 3 9 13 16 12 9 7 6 5 5 6 8 12 15 15 16 16 16 15 16 16 16 17 18 18 19 18 17 17 18 18 18 19 20
6 8 8 9 7 6 4 3 3 2 4 5 2 3 2 3 6 5 5 4 3 7 12 12 13 12 8 4 4 3 2 5 8 8 10 12 13 14 16 18 19 18 19 20 21 20 18 19 19 19 20 20 20 20
10 10 7 12 8 8 4 3 4 5 4 6 7 5 6 7 4 1 1 5 10 15 18 17 15 12 13 16 12 10 10 10 11 12 13 14 14 15 15 18 20 20 21 19 19 20 19 20 22 23 23 23 22 20
7 9 11 4 4 6 11 9 7 9 8 15 5 4 7 10 17 25 30 32 33 33 33 32 30 26 25 22 20 19 19 18 18 20 21 20 17 15 16 19 21 20 20 19 18 20 23 23 24 24 24 23 22 21
8 18 8 7 5 7 12 16 11 15 15 18 16 15 22 30 35 36 39 40 42 43 43 39 34 32 31 29 29 27 25 25 25 25 25 24 21 20 20 19 17 17 19 21 21 21 21 22 22 21 20 21 22 23
13 21 7 11 8 15 22 20 21 19 19 21 25 28 34 38 44 44 41 40 39 38 37 36 31 27 27 25 25 25 25 23 24 22 23 23 23 23 21 20 19 20 21 22 22 22 21 20 18 18 19 19 18 18
15 14 9 5 6 11 12 7 7 9 12 17 21 25 27 21 24 38 26 20 20 21 20 21 25 26 23 22 20 19 20 19 19 17 17 19 20 19 19 20 21 22 23 23 21 19 17 17 18 19 19 17 17 17
9 10 8 4 3 4 8 7 4 4 6 6 9 15 16 10 10 15 23 27 30 30 27 24 21 18 16 15 15 13 11 11 13 14 13 15 17 19 21 22 21 19 16 14 14 15 14 15 16 15 15 14 13 12

GFSWCAN_850_spd_033.txt.gz
Wind_Speed
7 6 3 3 3 4 7 10 15 17 16 14 15 16 11 9 9 11 9 10 9 4 15 9 6 7 8 6 4 6 3 5 3 5 4 3 5 6 4 5 6 9 6 6 7 6 7 9 6 4 6 7 4 2
8 6 5 5 5 5 7 9 12 17 16 14 13 16 16 14 10 7 7 10 12 8 9 19 23 20 17 13 8 5 5 5 7 4 6 3 5 3 8 4 9 6 7 3 7 4 4 7 5 3 1 1 1 3
7 7 7 7 7 6 7 9 12 16 17 15 16 17 16 12 6 12 11 11 14 9 16 6 2 4 6 9 21 6 3 4 4 6 5 3 6 4 6 9 7 8 10 4 4 8 10 7 8 1 3 4 3 2
6 7 7 7 7 8 9 10 13 15 16 15 16 17 16 11 10 16 17 12 10 6 5 5 6 9 10 9 11 24 21 9 9 10 4 4 4 7 8 6 8 5 11 10 9 9 2 10 12 10 6 3 4 6
7 7 7 7 7 6 7 10 12 13 15 15 15 14 15 15 15 14 11 7 8 5 4 11 22 7 6 9 14 14 14 13 12 4 3 3 9 4 4 3 8 9 8 9 5 9 11 3 12 10 6 5 8 10
8 8 6 7 8 7 10 12 13 12 15 12 13 13 18 19 14 8 2 4 7 1 4 4 6 4 2 3 7 9 10 9 11 8 6 7 12 8 6 11 15 14 19 17 12 5 3 8 6 5 7 7 9 12
9 9 9 9 9 9 10 12 9 9 9 12 13 15 20 10 7 2 2 4 7 8 2 5 4 3 2 3 2 5 9 6 8 6 10 10 6 12 5 10 6 13 14 11 7 6 5 5 3 5 6 11 16 17
13 11 9 9 8 8 8 6 6 8 11 13 15 18 15 4 5 3 4 5 6 4 2 3 4 4 5 4 4 6 6 7 8 8 9 11 6 4 5 13 9 6 9 10 8 8 5 6 7 10 14 15 16 16
11 11 7 7 6 6 3 3 5 8 12 16 17 11 3 2 2 3 9 10 7 3 3 2 3 3 3 5 3 6 7 4 7 6 7 7 5 5 6 10 11 12 10 8 10 7 7 7 8 11 13 13 13 12
10 9 7 7 6 3 2 3 4 10 13 12 9 3 1 1 10 11 2 0 2 2 4 3 4 3 4 5 5 4 8 3 4 7 9 5 3 14 11 10 4 10 9 9 6 3 5 5 5 8 11 12 13 14
10 11 9 8 5 1 3 2 6 11 12 10 8 2 5 8 4 2 1 2 2 3 4 5 6 5 7 4 2 7 2 2 3 3 3 3 3 4 11 11 8 8 8 7 6 6 5 5 8 13 14 12 13 13
10 10 10 7 5 1 1 3 7 11 11 11 4 5 4 3 2 1 1 2 2 2 5 5 10 13 8 6 5 5 3 2 2 1 2 2 2 4 6 6 6 5 5 4 4 5 5 5 10 11 11 12 11 11
7 7 12 9 4 0 2 5 8 11 13 3 3 3 2 1 1 1 3 0 3 5 3 11 7 6 6 5 6 2 3 2 3 2 2 1 4 5 5 5 4 4 4 5 4 5 3 3 7 6 7 8 8 6
8 10 13 10 6 3 4 3 8 11 6 2 3 2 2 1 2 2 2 2 4 6 12 14 9 5 5 3 2 3 1 3 2 2 2 2 6 7 6 6 4 4 5 4 4 2 3 4 4 6 4 7 9 9
8 11 12 11 8 7 4 7 7 10 4 1 2 1 2 4 6 6 8 8 9 13 9 10 8 5 3 4 2 2 2 3 3 2 3 0 7 7 6 6 6 5 6 6 5 3 1 1 2 4 5 7 8 8
9 12 13 11 9 7 5 6 8 7 2 1 3 3 4 2 4 5 8 9 6 7 10 4 3 3 4 3 3 3 2 2 2 2 5 4 9 8 7 7 5 4 3 3 2 1 2 3 4 5 7 8 8 8
10 9 8 11 9 9 6 6 5 3 4 3 3 8 7 6 7 5 5 5 6 5 2 3 4 2 5 3 3 2 2 3 8 11 7 5 9 8 7 6 5 3 1 1 2 3 4 5 6 7 8 9 9 9
12 8 8 9 7 7 6 4 4 4 5 6 4 1 5 7 7 6 5 5 4 3 2 2 3 3 4 4 2 1 3 8 9 11 4 5 8 8 6 5 4 2 2 2 3 4 4 5 6 7 8 8 8 9
12 11 9 9 11 6 2 3 5 5 7 5 8 10 9 11 14 13 11 7 7 7 6 5 5 4 4 6 6 11 8 6 6 6 8 8 10 11 9 7 6 5 4 4 4 5 5 6 7 8 9 9 9 9
11 9 11 11 10 5 4 3 5 5 4 3 6 6 6 7 11 11 10 7 6 4 6 5 6 7 11 15 12 10 10 8 7 8 10 13 13 13 12 11 10 8 7 6 6 7 7 8 8 9 10 10 10 10
13 13 12 10 13 11 4 5 6 5 5 4 6 6 5 8 8 7 5 6 9 6 7 16 24 30 28 27 26 27 26 23 18 18 16 14 14 17 16 15 13 12 9 8 7 8 8 9 9 9 10 9 9 9
16 18 13 16 10 8 8 8 4 2 4 4 4 5 5 4 4 3 4 7 8 11 14 20 25 24 24 25 24 22 22 22 22 20 19 17 18 16 17 18 17 14 11 9 8 7 8 9 10 10 10 10 10 11
13 12 14 6 6 5 3 6 4 4 3 2 3 3 4 4 4 3 5 8 11 21 22 23 23 23 24 25 24 24 23 21 20 20 23 24 21 18 17 16 16 16 13 11 10 9 10 11 12 12 11 12 12 12
16 10 8 10 12 3 5 5 5 3 2 3 3 4 3 3 2 4 5 7 23 21 17 18 18 20 19 18 17 16 14 16 19 20 19 20 21 19 17 16 15 15 15 13 13 12 13 14 14 15 14 14 13 14
6 9 8 6 7 5 5 4 4 3 4 6 4 4 1 1 2 4 4 11 20 12 9 11 10 9 12 17 16 10 7 11 15 17 17 18 18 17 16 16 17 17 16 17 16 15 17 17 17 18 17 15 16 16
6 12 9 13 7 6 7 5 6 6 3 4 6 2 1 1 3 6 4 5 6 2 9 13 15 15 14 17 17 17 11 10 13 15 13 14 15 16 16 17 17 17 17 16 18 19 20 20 20 19 17 17 18 19
6 7 7 10 7 5 3 2 3 3 4 5 2 4 3 4 6 5 4 4 3 2 12 18 19 20 19 17 16 17 18 15 11 10 9 12 14 15 17 19 19 18 19 20 20 20 20 21 21 19 19 19 19 20
8 13 8 12 7 9 3 4 5 6 4 6 5 6 4 6 4 2 2 9 17 21 26 28 30 31 29 27 25 22 20 19 20 18 16 15 15 16 17 18 19 19 19 21 22 22 22 21 21 20 20 22 22 22
7 9 12 6 5 6 10 8 7 10 9 13 6 5 7 21 26 26 28 30 33 38 43 46 45 41 39 36 32 28 25 24 24 25 26 25 24 22 19 20 20 20 20 22 23 23 22 20 21 23 23 23 23 23
8 18 8 9 6 7 14 17 20 22 21 23 24 21 25 32 36 35 38 41 42 43 43 45 45 42 39 35 32 29 26 26 26 27 29 30 29 25 23 22 21 21 21 21 20 20 22 23 23 23 23 24 24 23
12 20 7 11 8 17 21 22 24 22 20 21 24 26 30 31 41 41 36 36 37 38 39 37 32 27 28 26 25 24 25 22 22 23 24 26 26 25 24 24 23 22 22 21 21 22 22 23 23 23 22 21 20 21
16 13 8 5 6 12 14 8 7 10 15 18 22 22 23 17 16 23 18 24 26 28 27 26 25 26 25 24 24 22 21 19 20 19 17 16 16 17 18 19 20 20 20 21 22 22 23 22 21 19 19 19 19 19
7 8 6 4 4 4 7 7 5 4 7 7 11 19 18 11 10 15 23 25 24 24 23 22 23 22 20 17 16 14 14 13 12 10 9 11 13 14 15 17 19 20 21 21 18 16 15 16 17 16 17 17 16 15

GFSWCAN_850_spd_036.txt.gz
Wind_Speed
7 7 4 2 2 3 6 8 11 14 16 16 14 15 18 19 14 12 12 13 10 4 13 6 4 4 5 3 3 8 4 2 2 2 2 3 3 4 2 4 6 6 5 3 4 3 6 11 5 1 4 10 9 10
8 8 5 4 3 4 7 8 10 13 14 16 15 16 18 15 12 10 13 10 14 9 10 19 20 21 17 10 5 5 6 5 6 3 3 3 2 2 3 3 6 4 5 4 7 5 5 10 3 9 6 7 5 9
9 9 6 4 5 5 7 9 11 13 13 17 16 15 15 14 10 13 18 16 12 9 16 3 3 5 3 5 15 4 2 1 5 7 4 3 4 2 3 5 5 4 4 3 2 4 5 10 8 5 5 7 8 9
10 8 6 4 4 4 7 10 11 14 14 16 15 13 12 14 14 14 13 10 8 7 4 3 8 8 15 15 9 17 11 5 9 9 3 3 3 6 3 4 2 5 8 5 4 6 1 6 15 13 9 7 6 5
9 8 6 3 2 3 7 12 13 16 15 16 12 11 13 17 17 11 6 3 4 3 4 10 9 4 9 2 3 4 9 9 4 2 3 3 6 6 6 3 4 5 5 4 4 10 11 3 18 12 13 8 7 6
9 8 5 3 1 5 9 11 15 14 12 12 11 11 14 19 9 6 2 2 6 8 4 3 6 3 5 3 3 7 8 7 7 4 4 5 12 2 4 7 14 20 16 18 10 2 6 11 12 11 9 8 8 8
11 9 7 5 4 6 10 12 12 9 9 10 11 14 17 12 4 3 2 7 10 9 1 4 6 4 8 3 2 3 5 6 6 4 6 9 6 4 3 5 9 20 24 21 8 9 7 8 6 8 7 7 8 11
11 11 9 6 1 3 8 10 10 8 10 13 15 15 9 2 4 4 6 8 10 4 3 2 3 4 3 3 3 4 3 6 6 6 5 5 10 11 5 9 15 24 6 11 10 11 7 10 7 5 7 9 12 14
13 12 11 7 3 2 5 6 8 10 14 16 13 5 4 3 2 4 11 6 5 2 3 2 3 3 6 5 4 3 6 3 5 3 4 6 4 5 8 18 5 24 7 9 13 9 7 5 4 5 6 8 11 12
12 11 10 10 7 1 4 4 8 12 14 9 4 3 2 4 10 2 3 3 3 3 1 2 3 3 5 3 4 3 6 3 3 5 7 4 5 21 18 9 3 8 2 8 9 7 6 4 3 2 7 11 12 13
13 13 12 9 6 4 1 5 10 12 9 5 3 0 4 3 3 3 2 2 1 2 2 4 5 4 9 3 3 5 2 2 2 2 2 3 2 1 17 14 11 8 10 7 5 5 3 4 3 6 9 9 9 12
11 12 13 10 7 4 1 5 9 11 13 9 2 2 2 2 1 2 1 1 1 2 3 4 8 12 8 6 4 5 3 2 3 3 3 2 1 1 3 6 8 9 7 5 5 4 3 3 4 8 7 7 8 10
12 11 11 10 6 3 1 5 8 13 14 3 3 1 2 2 4 3 3 3 3 5 3 10 7 6 6 6 6 3 3 3 1 2 2 1 2 1 1 2 3 3 4 5 5 5 6 4 2 5 6 5 7 9
11 9 8 8 6 3 2 7 11 16 7 3 1 4 2 0 2 2 2 2 3 6 16 16 7 4 5 3 2 4 2 2 2 2 2 3 5 1 1 1 0 1 3 3 4 4 4 3 2 4 7 7 7 7
11 8 9 9 6 2 2 5 9 14 6 3 1 3 3 1 3 5 5 4 5 10 12 11 8 4 3 4 3 3 3 2 1 2 2 12 6 3 1 2 2 3 4 4 4 3 2 2 2 4 5 7 8 8
11 10 10 9 6 3 4 4 9 12 4 4 4 1 3 1 2 3 4 3 4 8 9 3 3 3 3 4 3 4 3 1 2 2 13 12 5 2 3 3 2 2 3 3 3 3 3 3 2 4 5 7 8 8
13 8 9 10 9 7 5 3 5 3 3 4 4 7 6 6 6 3 3 2 5 3 1 2 3 3 5 3 3 2 2 3 12 15 14 10 6 4 4 3 1 1 2 3 4 4 4 4 5 5 6 7 8 8
11 9 8 9 9 11 8 4 3 4 4 5 4 2 5 7 6 6 5 6 2 3 2 2 3 3 4 4 4 1 6 15 12 11 10 8 6 6 4 4 3 2 2 4 5 5 5 5 5 6 7 8 8 9
10 9 9 10 14 8 3 4 4 3 5 5 7 10 9 9 11 11 11 10 7 6 3 3 4 4 4 10 9 16 18 14 13 13 13 12 11 10 10 9 8 7 6 6 7 6 6 6 7 7 8 8 9 9
11 9 10 14 14 6 4 4 5 4 4 4 7 6 6 8 10 10 9 9 6 3 6 5 6 9 16 25 19 19 20 20 21 19 21 19 16 15 15 16 15 12 9 8 8 8 8 8 8 8 9 9 9 9
13 11 13 13 14 9 4 4 5 5 4 5 7 7 5 9 10 8 7 7 8 6 7 17 27 30 29 29 28 28 29 28 28 26 28 26 19 17 16 17 17 16 14 12 10 9 8 8 8 9 9 9 9 9
15 17 14 15 7 7 7 8 5 4 4 4 4 5 7 5 5 4 6 8 8 14 16 21 23 22 26 28 28 28 28 29 29 28 25 24 24 20 17 16 17 19 17 14 12 10 8 8 8 10 10 10 10 10
11 15 10 7 6 8 4 8 7 5 3 2 2 3 5 5 5 4 6 9 11 21 23 25 25 22 22 20 19 19 19 22 25 24 23 22 23 23 23 20 18 17 17 16 14 12 10 10 10 11 11 12 12 11
12 8 6 6 11 4 6 6 5 4 3 3 3 4 4 4 3 4 4 11 30 30 29 20 13 14 10 11 15 18 17 15 15 14 14 17 21 22 20 19 17 16 15 14 15 13 12 12 13 13 14 15 14 13
6 8 7 6 9 7 5 4 3 3 4 4 3 4 2 3 1 3 5 21 29 24 17 5 5 9 13 16 16 17 19 20 17 20 14 16 17 18 18 17 16 15 15 16 16 14 14 15 16 17 18 18 18 16
5 10 10 9 6 6 7 5 6 7 3 3 6 3 1 0 1 6 4 7 6 4 8 6 10 13 16 17 20 20 17 17 21 22 20 17 12 13 13 15 15 15 15 14 15 15 16 18 19 20 19 20 19 19
5 6 8 9 7 6 3 2 4 3 4 6 3 3 3 3 6 6 7 8 7 5 8 20 26 24 26 29 31 30 28 25 21 19 23 21 16 13 14 16 16 14 15 15 15 17 18 19 20 20 21 20 20 20
7 12 8 12 7 8 4 4 5 6 4 7 7 5 7 8 5 4 5 15 19 18 22 30 36 41 43 42 37 31 28 27 26 24 22 21 20 20 18 18 17 17 18 19 19 19 19 19 21 22 21 21 19 20
6 9 13 6 5 6 11 10 8 11 10 14 6 4 8 17 26 25 27 33 35 36 41 43 42 44 44 41 38 34 29 27 27 27 26 28 27 26 22 23 21 21 20 21 21 20 21 22 22 22 20 21 22 22
8 17 7 9 6 7 13 18 15 22 22 25 26 27 31 37 39 37 39 38 38 42 39 41 42 39 37 35 33 28 23 22 23 24 27 28 28 26 24 22 21 20 20 21 21 22 23 23 22 22 22 22 23 23
9 20 6 11 8 14 23 22 24 24 23 24 26 29 35 36 41 39 36 32 29 26 30 32 31 31 31 30 27 26 24 18 17 17 18 21 23 24 24 23 20 20 20 20 21 21 21 22 22 22 23 23 22 21
16 14 9 4 5 13 15 9 7 8 11 16 23 25 26 22 17 29 23 11 20 27 27 28 29 29 28 26 25 24 22 20 17 17 18 17 16 15 16 17 18 18 19 20 20 20 20 21 22 23 22 19 17 17
7 7 6 4 4 5 8 7 4 4 7 7 12 22 26 16 11 20 22 25 25 24 24 25 25 25 23 20 16 13 12 11 10 10 9 8 8 10 11 13 14 15 16 17 18 19 18 17 16 14 14 15 15 15

GFSWCAN_850_spd_039.txt.gz
Wind_Speed
14 12 9 6 5 2 1 4 7 10 14 16 16 18 19 18 14 11 11 10 9 5 10 1 3 6 6 4 1 7 2 4 4 1 2 3 2 3 1 4 6 6 5 4 4 3 6 5 4 3 2 3 6 14
15 14 10 7 4 2 1 2 5 9 13 15 17 16 16 15 13 14 13 15 7 5 6 13 6 8 13 8 5 4 2 2 3 2 3 3 3 2 3 2 1 3 6 4 7 5 5 15 3 7 8 6 4 10
17 13 9 7 4 2 1 2 5 9 11 14 16 14 12 14 16 17 14 11 11 6 6 5 5 4 5 4 8 4 0 2 4 6 2 2 4 1 2 5 4 3 7 3 1 2 5 12 12 10 9 8 7 9
17 13 10 6 4 2 1 2 6 11 12 11 14 12 12 14 18 11 10 6 6 4 2 2 7 14 9 11 7 10 8 2 3 5 2 2 3 5 3 4 2 6 5 6 4 5 5 6 14 14 11 10 11 11
17 13 10 6 4 3 2 2 5 10 11 10 10 10 12 15 17 8 4 5 7 6 3 9 6 9 5 4 0 7 10 14 6 1 1 3 5 4 4 3 7 5 5 4 5 9 10 10 14 18 15 14 10 9
17 15 12 9 6 4 2 3 6 9 6 6 9 11 14 17 8 2 2 3 12 10 2 2 5 4 7 4 1 5 6 7 5 4 4 4 5 3 4 4 7 26 25 13 9 13 6 7 11 20 19 13 10 8
18 15 12 9 6 6 3 5 6 5 5 6 8 12 14 7 3 2 3 7 10 8 2 5 6 4 8 4 3 3 5 4 5 3 4 4 4 5 3 9 14 23 19 23 21 15 12 15 10 15 13 10 9 8
19 16 13 9 7 5 3 5 3 4 6 10 11 9 6 4 4 4 8 8 7 4 4 2 3 5 6 4 3 2 3 4 5 3 3 4 3 5 5 8 23 35 23 26 14 20 14 14 11 10 8 7 8 9
19 16 14 11 9 6 2 1 1 5 9 10 7 7 5 4 3 7 7 6 9 6 4 2 2 3 8 4 4 2 4 1 3 3 4 3 2 4 9 16 22 15 8 21 5 5 10 11 9 7 5 5 5 8
18 15 16 15 11 6 3 2 2 5 9 8 6 6 3 4 5 3 3 3 4 5 4 1 2 3 6 3 4 2 4 2 2 5 5 2 4 23 22 20 6 3 12 16 11 5 8 9 7 6 3 4 6 7
16 17 17 15 10 6 4 2 3 7 7 6 5 4 4 3 2 2 2 3 3 2 2 2 4 5 7 2 2 4 2 2 3 3 4 3 2 4 14 5 8 4 5 14 6 1 4 6 5 3 3 3 4 7
18 17 17 15 11 7 2 1 5 9 8 4 4 3 3 3 1 3 2 2 1 2 3 3 6 11 6 5 4 4 3 2 4 8 3 2 2 12 11 9 7 6 5 10 6 5 3 4 2 2 2 2 3 4
20 17 16 13 10 6 3 3 7 10 8 6 4 3 3 2 5 4 2 4 3 2 3 7 6 3 5 5 5 3 3 3 1 2 2 2 13 12 10 8 7 4 2 5 5 5 6 5 5 5 4 4 4 4
20 17 16 13 10 6 3 4 8 9 4 3 3 3 3 3 3 4 4 4 3 6 11 13 5 1 3 3 3 4 3 2 2 2 3 3 20 14 10 6 6 5 3 2 3 4 4 3 2 2 4 5 4 4
20 17 16 13 11 8 3 4 7 7 2 3 3 2 2 2 4 2 3 4 4 7 9 6 5 2 2 3 3 4 3 3 1 5 3 18 18 11 10 8 6 5 3 1 1 2 3 2 0 2 4 5 6 6
20 17 17 14 12 8 4 2 7 2 2 2 2 2 2 2 3 3 4 5 4 6 4 3 3 2 3 2 3 4 4 3 4 5 17 19 17 11 7 6 7 4 3 2 3 4 2 1 2 4 5 7 8 8
18 12 18 17 14 9 6 1 4 1 2 2 1 4 6 7 8 5 4 4 4 7 1 1 2 5 4 3 3 3 2 2 11 16 16 17 16 14 9 2 5 5 4 2 2 1 2 4 6 5 5 6 6 7
17 14 16 16 13 11 6 1 2 1 1 1 3 1 4 8 7 7 5 6 3 2 0 3 4 2 4 4 4 3 3 12 14 16 18 17 17 18 13 8 6 6 9 10 7 5 7 6 6 8 8 8 8 8
14 14 13 15 15 8 5 3 3 2 3 4 6 9 9 9 11 12 10 7 6 5 2 2 3 4 4 10 12 22 19 20 22 23 26 24 23 23 17 15 15 15 14 9 6 7 8 8 7 7 7 7 7 7
12 13 14 16 14 5 5 5 5 3 4 4 6 6 7 8 10 10 9 8 8 3 5 4 6 9 17 29 28 27 28 30 29 29 30 29 23 19 21 19 18 15 14 13 11 11 10 9 8 7 7 7 7 7
17 17 17 15 12 6 2 4 4 4 4 5 5 5 5 8 11 11 10 13 9 7 9 19 27 29 28 28 27 26 29 26 26 26 30 32 28 24 22 19 19 16 17 17 15 12 11 9 8 8 7 8 8 8
17 19 15 15 6 5 5 7 3 3 4 3 4 6 6 5 7 7 7 10 9 19 23 27 29 28 26 28 26 21 19 18 18 20 22 25 28 28 25 22 20 21 18 17 16 15 13 11 9 8 8 8 8 9
17 18 8 8 7 6 4 10 7 7 3 3 2 2 5 5 4 5 6 9 13 28 26 27 28 27 25 19 9 7 11 15 16 18 21 21 20 18 19 20 20 22 22 19 17 17 15 12 10 9 8 8 9 10
13 10 5 5 9 3 6 7 6 4 3 2 2 4 4 5 3 3 4 11 29 30 31 30 25 19 10 4 6 10 13 16 18 19 17 22 18 17 17 18 18 19 18 17 16 17 16 15 12 11 10 11 12 12
5 7 5 6 6 5 3 1 3 3 4 4 3 4 3 3 0 3 5 14 23 22 20 6 8 5 4 8 11 17 22 24 24 24 20 16 19 24 20 15 15 15 15 17 16 16 15 13 13 13 13 14 14 14
4 10 10 8 7 7 7 5 6 6 3 2 6 2 2 2 1 6 4 13 14 12 2 5 4 13 18 19 23 29 31 30 29 29 25 20 17 18 23 17 14 12 11 11 12 14 14 15 15 15 16 16 16 18
4 6 8 10 6 6 4 3 5 3 4 6 3 3 3 2 6 6 10 3 4 4 11 17 22 24 29 35 39 39 37 34 31 29 27 26 23 19 17 21 19 13 12 13 13 14 15 15 16 16 17 17 18 18
7 13 8 12 7 7 5 5 5 7 5 7 8 4 7 8 6 4 5 11 25 31 32 33 37 39 40 40 39 37 33 28 27 28 29 29 26 23 22 20 19 18 17 16 16 17 18 18 18 18 18 18 18 19
7 10 14 6 5 6 10 11 9 11 12 14 8 5 9 23 27 29 32 32 36 38 39 39 37 37 38 35 33 30 29 26 24 26 28 29 25 20 18 19 22 23 22 20 22 22 21 21 20 19 20 20 19 18
7 17 7 9 7 8 14 16 18 19 18 24 27 28 32 38 41 39 40 39 38 37 37 38 38 36 35 35 36 34 28 24 21 21 24 24 22 20 18 16 15 16 18 19 20 20 20 21 20 21 19 18 19 20
10 20 6 12 8 11 19 21 24 24 23 24 26 28 37 38 46 42 36 31 33 34 34 32 30 30 32 34 35 33 29 20 18 17 19 19 19 18 18 19 19 17 16 15 16 16 18 18 18 19 20 20 20 21
14 13 10 4 5 8 11 10 9 8 13 21 24 26 27 20 22 37 22 17 22 25 25 27 29 31 30 31 30 26 23 19 16 15 16 16 17 16 16 15 14 15 15 15 15 16 17 18 18 18 19 20 20 18
9 8 5 3 3 4 7 6 4 5 7 7 13 20 20 12 11 19 19 21 19 23 22 24 23 26 27 25 20 15 12 11 9 8 7 6 6 7 8 9 10 11 12 13 13 14 15 16 16 15 15 15 14 13

GFSWCAN_850_spd_042.txt.gz
Wind_Speed
25 21 19 16 12 10 6 4 1 6 10 12 15 13 13 14 13 13 12 12 7 2 4 3 5 7 7 4 2 9 2 3 4 1 1 2 1 3 1 4 6 6 5 4 3 3 7 3 2 4 3 3 5 4
26 23 19 16 14 10 7 5 2 5 8 10 11 11 9 12 13 13 9 9 7 3 2 5 7 6 8 6 3 6 3 4 4 2 2 2 2 1 1 3 1 2 6 4 7 5 5 7 7 8 6 3 2 4
27 24 20 17 13 10 7 5 3 2 6 7 9 8 8 11 15 11 7 9 8 5 4 7 7 10 5 3 5 3 1 2 2 4 2 2 4 3 2 4 3 3 5 3 2 4 8 11 16 12 9 7 4 4
28 24 20 17 14 10 7 5 2 3 7 5 8 7 8 11 15 8 7 9 11 5 3 2 8 6 6 6 5 5 7 1 2 3 2 2 2 2 3 3 2 5 1 3 5 5 7 13 12 15 14 11 8 8
28 25 21 18 14 11 8 4 1 4 7 7 7 5 7 11 10 4 6 7 12 4 2 2 3 9 9 7 4 2 6 11 6 3 1 2 4 4 4 2 8 8 6 4 5 8 10 15 15 18 17 14 11 11
29 26 22 19 15 11 8 5 1 2 4 5 7 9 10 7 2 1 2 2 10 6 3 2 1 2 7 6 4 1 1 3 2 2 4 4 3 2 2 3 8 11 23 7 6 19 20 22 9 12 20 16 14 11
30 26 23 19 16 12 8 6 3 1 3 6 8 9 6 6 4 3 3 6 6 2 2 1 3 2 5 4 2 1 4 2 3 3 4 3 3 4 2 3 9 23 30 32 24 24 16 17 12 12 21 17 14 11
31 28 24 20 16 13 9 6 3 1 4 5 4 7 9 7 5 6 10 6 4 1 2 2 3 4 5 3 1 2 3 3 4 3 3 3 3 3 4 14 23 25 26 26 14 20 22 26 16 16 16 14 11 10
32 28 24 20 17 14 10 7 4 2 5 3 6 7 5 4 4 5 5 8 8 3 2 3 1 3 7 3 3 2 3 2 3 3 3 2 2 3 8 16 23 24 20 9 11 18 12 12 15 13 11 9 8 7
31 28 24 21 17 13 9 6 3 3 2 6 7 2 1 3 3 3 4 5 5 5 4 3 2 3 5 3 3 1 4 2 2 4 4 2 3 18 17 21 17 16 12 15 17 20 20 12 8 9 7 6 6 7
30 27 24 21 17 13 10 6 3 2 2 2 3 2 3 4 3 3 3 4 5 4 4 3 4 4 5 2 2 2 1 2 2 2 2 2 2 6 20 19 14 9 8 9 11 15 8 7 11 6 4 4 4 5
29 26 25 21 17 13 9 7 5 4 2 4 6 6 3 2 3 5 2 4 2 2 5 3 5 6 5 4 4 3 2 2 4 8 2 1 4 22 22 21 17 15 11 9 7 11 6 4 3 2 1 1 2 3
28 27 25 20 16 13 11 8 6 4 7 7 4 2 2 3 7 5 2 4 3 5 4 9 7 4 3 3 5 3 3 3 8 3 2 2 21 28 25 20 19 16 12 8 7 5 5 3 3 4 4 1 2 3
30 28 24 20 16 13 12 9 7 6 5 4 2 4 3 3 1 4 4 4 1 4 12 13 4 3 3 2 3 3 3 3 2 5 3 5 22 31 26 18 16 16 14 10 7 4 3 3 4 3 3 2 3 5
31 28 24 20 17 15 13 11 8 5 4 4 3 1 1 1 2 1 3 3 1 5 9 6 5 2 3 3 2 3 3 2 5 1 3 18 24 24 24 19 13 13 11 11 9 5 2 1 0 2 3 4 5 5
32 27 24 22 18 15 12 7 5 5 4 4 4 3 3 1 1 2 4 3 1 4 4 1 2 3 3 3 3 4 3 3 3 3 15 19 22 20 21 19 13 9 10 8 5 5 5 4 3 3 4 6 5 5
32 22 27 23 18 15 11 6 3 3 4 5 4 4 4 4 6 5 3 2 2 3 1 3 2 6 4 3 3 3 3 3 5 11 15 19 24 25 22 20 18 13 8 7 7 7 7 6 6 4 7 7 6 6
25 21 24 24 20 16 9 4 3 4 3 3 4 5 4 6 7 8 6 6 4 3 3 3 0 2 4 4 4 4 5 19 18 17 22 28 28 26 25 24 19 17 17 15 13 9 3 3 7 7 8 8 8 7
19 23 23 21 18 9 5 3 3 3 3 3 4 5 6 7 10 12 11 7 9 7 3 2 4 4 4 9 11 19 21 22 27 33 33 31 28 25 22 21 19 19 20 18 14 11 12 11 10 10 10 9 9 8
20 22 21 19 14 4 4 3 4 4 5 4 6 6 5 6 10 10 10 13 14 4 4 5 7 9 15 25 26 26 27 27 27 31 34 29 26 27 25 22 21 19 19 18 18 14 13 14 12 11 10 10 9 8
27 23 20 17 7 2 2 3 4 4 3 5 4 6 5 11 11 11 9 15 10 7 9 18 27 31 31 29 26 27 26 25 24 22 25 27 25 27 28 24 21 20 20 20 19 16 15 15 12 12 10 9 8 8
26 23 17 15 4 5 4 5 3 3 4 2 2 5 5 4 7 6 7 9 8 18 30 31 33 31 32 30 27 24 21 16 13 14 16 20 25 29 26 21 18 18 19 20 18 17 15 14 15 13 11 10 9 8
24 18 9 7 5 6 3 9 5 3 1 2 2 1 4 4 4 6 6 9 13 29 31 31 33 30 29 26 25 16 10 9 13 17 19 22 23 22 22 21 19 19 20 20 20 19 19 17 18 16 13 11 10 9
15 9 6 7 6 4 6 5 6 4 3 2 2 4 4 4 3 2 4 11 31 29 27 25 25 23 21 19 12 3 5 16 22 25 24 26 26 23 22 23 21 20 20 19 18 19 19 18 18 18 15 13 12 12
6 5 4 3 5 5 2 2 3 3 3 2 3 4 3 3 1 1 4 13 10 13 13 10 3 2 3 11 17 18 19 25 30 34 36 29 28 26 22 21 21 19 16 18 19 17 16 16 18 18 16 15 14 14
3 7 8 10 8 6 8 5 5 6 3 4 6 3 3 2 0 7 5 11 12 4 2 5 10 15 20 24 23 28 32 34 36 38 39 33 28 27 27 25 23 18 15 13 12 13 13 14 17 18 18 17 16 17
5 6 8 8 6 5 4 2 4 3 4 6 3 4 3 3 6 6 8 9 8 5 5 14 21 22 26 31 33 35 35 33 31 31 33 33 32 30 30 29 27 22 18 15 13 13 14 14 16 18 19 18 18 19
4 13 7 14 8 8 5 5 5 7 5 7 8 4 7 8 6 5 6 15 22 28 32 34 37 40 41 39 36 37 35 29 29 32 34 36 31 27 24 24 24 22 23 20 18 15 15 16 18 19 20 21 19 19
7 10 14 7 5 6 10 11 10 11 10 15 7 4 9 21 28 30 31 30 32 35 39 41 38 35 36 36 37 32 28 29 31 34 34 35 31 24 20 15 15 16 19 21 22 23 22 22 23 24 24 23 22 22
8 15 8 8 7 7 13 16 14 15 17 22 26 29 34 39 40 36 37 37 38 38 34 36 36 33 32 29 28 27 28 29 31 29 30 29 27 23 21 17 15 14 15 17 19 21 23 23 22 23 22 21 20 20
9 20 6 11 8 12 19 20 22 24 25 25 26 29 36 41 44 39 32 29 27 25 26 25 24 24 25 26 27 31 34 33 32 26 25 26 26 23 20 17 16 15 16 16 16 16 17 17 17 18 18 19 19 20
14 13 9 3 4 8 11 10 11 11 14 19 21 25 27 19 16 21 23 21 24 25 18 19 23 24 26 26 27 30 31 29 23 18 17 17 16 15 13 13 14 13 12 13 14 15 16 16 17 18 19 19 19 20
7 6 4 3 3 5 8 7 4 5 6 6 10 17 20 11 10 15 17 20 19 20 22 26 27 26 25 24 25 26 21 16 13 10 9 8 8 9 9 9 9 9 9 10 11 12 13 14 15 16 16 16 16 16

GFSWCAN_850_spd_045.txt.gz
Wind_Speed
36 32 27 23 20 17 13 9 7 2 6 9 10 10 9 10 13 10 11 12 6 5 6 6 6 3 3 3 2 7 2 5 5 3 1 1 1 2 1 2 4 6 4 3 3 3 7 3 2 4 5 9 11 14
36 32 28 25 22 19 15 13 9 5 4 4 6 6 6 9 13 9 8 12 9 7 5 7 10 12 1 2 3 5 2 2 3 2 3 2 2 2 0 2 1 2 5 4 7 5 6 5 11 11 11 11 11 12
37 34 30 27 24 19 17 14 11 7 4 3 5 4 6 10 12 9 9 13 10 10 9 4 5 5 5 2 2 1 2 2 2 3 0 1 2 1 2 4 3 3 2 3 1 4 9 19 16 17 18 14 10 8
41 36 31 29 24 22 19 15 11 8 5 5 5 5 5 9 9 7 9 15 8 6 3 3 6 5 6 3 2 3 4 1 2 3 3 1 2 4 2 4 2 3 4 2 6 8 16 18 16 18 17 14 12 7
40 37 33 29 26 23 19 15 12 9 7 6 6 5 6 8 6 5 6 14 12 4 2 1 2 5 7 6 5 1 4 6 3 2 1 2 3 3 3 3 3 3 3 2 7 8 9 14 22 27 20 19 13 10
41 38 35 30 27 24 19 14 12 9 8 7 7 6 7 10 7 4 4 6 10 3 1 1 2 2 6 6 3 2 4 3 1 1 2 2 2 1 1 2 8 7 12 18 8 23 23 26 31 27 24 18 14 12
43 39 35 31 28 24 19 15 12 10 8 8 9 10 11 10 9 6 5 7 7 3 2 3 3 2 5 4 3 1 4 2 2 1 1 1 2 1 1 3 7 16 26 30 28 24 17 22 20 25 23 18 16 14
44 40 36 32 28 23 20 16 13 10 7 10 13 13 12 10 10 11 14 9 3 3 3 2 4 2 7 3 1 0 1 2 1 1 1 2 1 1 3 11 23 28 29 28 14 14 17 21 29 24 19 18 18 15
44 39 36 32 28 24 20 17 14 11 8 13 15 13 12 6 4 4 6 9 12 8 3 4 2 3 10 4 3 1 2 0 1 1 2 3 1 1 7 19 23 28 18 23 21 24 22 19 21 13 14 13 13 12
43 40 36 32 27 24 21 18 14 11 11 13 12 4 4 4 5 3 3 3 5 6 5 4 4 3 9 5 4 2 3 1 1 2 4 1 2 10 13 24 23 23 22 20 21 22 22 24 16 12 9 8 6 8
43 39 35 31 28 24 21 18 13 12 14 10 5 4 9 7 3 2 3 4 4 3 3 2 2 3 5 3 3 3 2 2 1 2 2 1 1 11 25 28 24 23 22 19 18 20 17 15 11 7 9 6 9 6
41 37 34 31 28 25 21 17 12 12 8 8 8 12 6 3 3 5 1 2 2 2 2 2 4 4 4 5 4 4 2 1 3 8 2 2 4 20 23 27 27 24 22 20 17 17 16 11 7 5 5 3 3 3
40 36 34 31 28 24 20 17 15 12 14 13 4 4 1 2 6 5 0 4 1 2 1 4 6 2 2 2 5 3 3 2 8 2 2 4 8 23 24 24 24 21 21 21 18 14 12 9 6 3 1 3 4 4
39 36 33 29 26 23 20 17 16 19 6 4 4 4 3 3 1 4 3 4 2 2 4 5 2 1 1 2 3 3 3 1 2 2 3 2 18 23 23 23 22 21 18 18 19 16 14 10 8 6 3 5 6 6
39 36 31 27 24 23 21 17 16 11 4 3 3 3 2 4 3 4 4 2 3 1 3 2 1 1 2 2 2 3 3 3 3 4 3 11 17 21 23 24 24 23 18 15 14 14 14 10 7 4 3 5 6 7
40 35 32 29 25 22 20 15 12 6 4 3 4 5 5 3 3 5 6 4 4 2 1 2 1 1 2 2 3 4 3 4 4 3 9 15 20 26 28 25 23 22 20 18 14 14 15 11 6 6 6 6 7 7
43 30 35 30 26 21 17 13 6 3 4 3 3 8 7 3 4 5 5 5 5 2 2 4 2 6 2 2 3 4 4 3 6 13 14 17 26 30 28 27 23 21 20 20 20 18 15 14 12 11 12 7 8 9
24 36 36 31 27 21 15 5 3 3 3 4 4 8 6 5 6 6 7 8 6 5 5 3 3 2 4 5 4 4 8 11 18 23 27 30 29 27 24 23 24 21 21 20 20 18 16 9 8 6 7 10 11 10
31 36 32 27 24 10 5 3 3 3 3 4 5 8 6 5 7 6 6 8 10 7 3 4 2 4 4 9 11 19 24 21 25 31 32 32 24 19 21 24 25 24 21 21 22 21 16 15 11 13 12 12 14 11
32 31 29 26 15 5 5 4 4 3 4 3 4 4 4 4 5 4 8 12 12 5 4 4 7 11 22 28 28 29 30 28 27 29 35 26 19 19 21 26 27 24 23 23 22 20 19 17 15 11 15 13 13 11
36 29 24 19 9 7 5 4 3 3 2 2 3 4 4 7 7 6 7 13 10 5 8 15 25 31 31 31 30 30 30 25 24 25 27 25 21 22 25 24 25 25 24 22 22 21 21 19 16 13 15 14 12 11
35 29 23 11 5 4 4 4 3 5 2 1 2 3 3 3 3 2 6 8 7 16 23 28 30 31 34 34 33 30 29 26 25 19 17 18 24 28 30 28 27 26 26 24 20 21 21 19 15 16 13 13 13 11
30 22 9 5 4 4 4 7 2 1 2 0 2 3 3 3 3 5 4 8 12 24 27 28 31 32 32 32 31 26 22 20 13 10 18 23 26 30 32 30 27 28 27 26 22 19 19 18 17 17 16 15 15 13
21 6 5 4 4 4 7 3 3 2 2 1 1 4 3 2 2 2 4 9 25 27 29 20 19 23 16 10 7 10 12 14 15 21 26 29 33 36 34 32 30 27 24 25 24 22 20 19 19 19 19 18 17 15
6 3 5 4 5 6 3 2 3 2 3 2 3 4 2 3 0 3 4 11 19 20 13 11 2 7 11 16 20 22 23 24 28 32 34 33 35 36 35 32 31 28 26 21 19 18 16 17 18 18 18 19 18 16
4 2 4 9 6 6 6 5 5 6 3 3 6 2 2 2 0 6 4 8 14 12 11 9 6 10 18 23 26 28 31 31 34 36 37 34 32 31 33 35 36 33 26 20 17 16 14 14 16 16 17 19 18 18
4 4 6 7 8 8 5 4 5 4 4 6 3 4 2 1 5 5 7 10 4 9 13 14 19 29 36 39 39 40 38 33 30 31 32 30 29 28 29 32 32 29 25 24 21 19 16 14 15 15 15 16 18 18
3 9 7 13 6 7 6 5 5 6 4 7 9 4 7 8 5 3 3 11 25 29 29 31 34 37 40 42 39 35 32 26 24 25 27 28 26 27 26 22 21 21 22 21 22 21 20 17 15 16 16 17 17 18
5 9 11 5 4 5 9 8 10 10 9 15 8 5 8 16 25 29 30 31 37 39 39 39 37 35 33 29 27 24 21 21 24 28 29 32 34 29 22 20 18 17 17 18 18 21 22 22 21 20 20 20 20 22
7 14 7 7 6 6 10 15 10 14 14 19 21 24 30 36 39 36 37 37 36 36 31 27 27 26 24 25 27 23 20 22 24 24 28 31 30 27 24 21 20 19 18 19 18 16 17 20 21 23 23 23 23 23
8 15 5 8 7 10 16 16 18 20 20 22 24 26 34 41 45 40 33 25 21 22 23 24 19 15 17 22 25 28 27 23 25 27 28 26 24 21 19 17 16 16 14 13 13 15 15 15 16 16 16 16 17 17
13 13 10 4 5 9 10 7 9 10 14 18 20 24 26 22 19 23 22 19 21 23 22 21 25 26 24 25 27 28 26 26 26 23 20 18 16 14 12 12 11 10 10 11 12 13 14 14 14 15 15 16 16 17
6 6 5 3 3 3 6 5 3 4 5 6 10 18 20 11 10 14 21 22 23 26 28 27 27 28 28 29 28 27 24 23 20 17 16 16 17 17 15 13 13 13 11 10 10 10 11 12 12 13 14 15 16 16

GFSWCAN_850_spd_048.txt.gz
Wind_Speed
43 38 37 32 28 25 19 14 9 7 8 8 7 7 7 9 9 8 13 8 6 7 8 8 6 4 4 4 2 8 2 6 5 3 2 1 1 1 2 2 4 6 4 4 1 2 6 3 0 2 4 10 14 17
42 42 38 33 29 26 19 15 13 11 9 6 5 6 9 9 9 10 14 12 13 9 9 10 13 12 3 2 2 3 3 2 1 1 2 1 2 2 1 2 1 2 4 1 6 5 4 4 9 13 18 23 21 18
47 45 38 33 32 26 21 18 16 13 9 8 6 8 10 9 10 10 14 18 21 15 10 5 8 8 6 3 5 4 2 2 2 4 3 0 1 1 1 3 3 2 3 2 3 3 7 24 17 13 22 31 26 20
49 44 39 35 32 27 23 21 18 14 12 9 9 9 8 9 11 10 13 10 9 8 5 5 8 9 9 7 4 2 0 2 3 2 1 1 1 3 1 2 2 3 7 4 5 6 22 4 23 29 34 34 28 19
47 44 39 36 33 29 26 23 20 15 14 11 10 10 9 10 10 9 14 15 8 5 5 5 8 9 9 8 7 2 2 5 2 1 1 0 0 2 2 1 2 3 2 3 4 12 9 19 32 37 37 36 31 21
53 47 40 39 36 31 27 24 20 17 15 12 9 12 13 11 9 5 4 13 6 7 5 2 3 6 9 8 7 5 5 3 3 3 2 1 1 1 2 1 4 5 18 19 11 22 30 31 27 26 26 32 32 26
52 47 44 41 36 33 28 25 21 18 16 12 12 18 15 12 9 5 7 7 8 5 4 3 3 5 11 6 5 4 3 2 3 3 3 2 1 1 1 2 6 26 23 26 25 18 13 12 22 31 31 34 30 23
54 48 46 41 38 33 29 25 22 19 16 16 18 19 18 18 16 19 19 11 8 6 6 3 3 2 11 4 4 3 2 2 2 1 1 1 2 2 2 10 20 24 26 20 20 22 26 30 32 30 31 30 21 15
52 48 46 43 39 35 30 26 22 20 19 20 21 18 13 7 3 8 12 13 15 6 5 5 1 3 8 5 2 0 1 1 1 1 0 1 2 2 7 19 21 23 17 24 28 25 24 22 25 31 30 20 17 13
52 51 47 43 39 35 30 27 23 22 25 23 18 3 5 6 11 7 4 3 4 5 4 4 2 2 3 4 3 2 2 1 1 1 5 1 3 12 12 15 20 21 19 22 23 23 26 28 27 27 23 15 12 9
55 51 47 43 39 35 31 28 25 27 27 18 6 3 15 12 5 3 3 5 4 3 2 2 4 1 1 1 2 1 1 1 2 2 1 2 2 2 17 21 20 19 18 19 18 18 18 20 22 23 17 11 11 7
54 50 47 42 38 35 31 28 26 28 15 10 8 16 8 4 3 5 1 3 2 3 2 2 1 1 1 2 3 1 1 0 2 8 1 2 3 14 19 22 24 22 20 21 20 19 18 17 16 16 11 7 6 5
53 49 45 41 38 35 31 25 26 14 19 19 4 4 1 3 6 4 2 3 1 4 4 1 2 3 3 1 4 1 3 2 8 2 3 3 3 16 18 23 26 25 24 22 22 21 18 17 14 14 13 9 7 6
50 46 43 40 37 33 28 27 23 27 7 4 5 4 3 3 2 4 4 4 4 5 3 1 1 2 1 2 2 2 3 1 2 1 4 3 11 17 21 24 27 28 26 25 23 22 21 20 17 13 12 10 8 8
47 43 40 37 34 31 28 27 29 17 3 3 4 3 2 4 3 6 6 5 6 5 1 2 2 1 2 1 3 2 2 3 5 4 3 7 16 23 25 29 29 28 27 27 25 23 23 21 20 18 13 6 10 9
47 42 39 36 33 29 26 28 24 8 3 3 4 6 6 3 2 5 6 5 7 5 2 2 2 1 2 2 3 5 3 6 4 3 6 14 19 22 26 28 29 27 25 25 25 24 24 22 20 19 15 7 8 10
49 41 39 35 30 29 26 21 9 4 4 4 4 9 8 7 5 6 8 6 9 5 2 3 2 7 1 2 4 4 5 3 5 7 13 16 21 25 26 22 20 23 26 27 26 24 23 22 21 20 16 12 13 10
32 47 43 38 34 29 18 6 4 3 4 5 6 11 8 9 10 7 8 9 9 5 5 3 4 3 4 4 3 4 10 8 12 17 22 26 26 27 20 19 20 24 27 27 25 25 24 22 22 19 12 9 11 7
47 46 39 34 28 14 5 3 2 4 4 7 10 13 7 8 8 6 7 9 10 4 2 2 1 3 4 9 10 18 21 17 24 26 26 26 26 21 18 18 21 24 27 30 30 28 26 24 22 20 17 13 14 13
43 40 36 30 17 6 5 4 4 4 5 6 7 7 6 5 8 8 10 10 11 5 5 3 6 7 12 22 27 28 28 28 26 26 27 27 26 18 17 19 23 26 30 30 30 29 27 23 21 19 19 16 13 14
41 36 31 19 11 7 5 4 4 5 7 5 7 6 3 3 4 6 8 12 8 7 8 13 20 23 24 26 28 29 28 23 23 22 24 28 19 16 20 23 27 34 35 33 32 30 28 24 22 19 19 21 17 14
41 33 25 12 5 5 5 4 7 9 4 5 4 4 3 3 4 4 6 8 7 12 16 21 21 23 26 28 27 27 26 24 23 21 20 15 16 20 25 26 28 35 39 35 32 30 27 26 21 19 19 19 19 14
35 23 10 5 5 5 3 5 3 3 3 3 2 2 1 1 3 6 3 8 11 17 16 19 21 22 20 17 11 11 12 14 14 13 12 18 25 28 32 36 33 35 36 32 30 28 27 25 23 21 18 17 19 18
22 6 4 5 5 3 5 2 4 4 4 2 2 1 2 2 2 2 3 7 16 19 19 18 13 13 6 4 7 15 20 21 22 25 26 28 33 36 37 39 37 34 32 31 32 28 23 23 21 18 18 19 19 19
6 3 4 5 4 5 3 2 3 2 3 3 2 3 2 4 1 2 3 6 3 8 6 7 10 12 13 13 18 25 26 28 30 34 35 33 35 35 36 37 36 33 34 34 29 23 19 18 16 16 17 18 19 19
5 2 3 6 4 4 5 4 5 4 3 2 5 2 3 3 1 5 4 6 5 4 4 8 13 16 20 23 30 35 39 39 38 40 39 32 32 33 36 37 39 39 33 28 26 23 22 19 15 14 15 15 17 18
5 3 4 5 7 10 6 6 6 4 5 6 3 5 3 3 6 5 7 7 8 8 15 22 23 22 28 33 36 38 40 39 32 32 34 33 31 29 29 32 35 36 30 26 25 24 23 21 19 15 15 14 15 15
4 8 7 11 5 6 5 4 5 7 4 7 11 4 7 7 5 6 3 8 15 23 31 34 35 35 34 34 35 33 29 24 25 28 29 28 25 24 26 28 26 24 23 22 22 20 19 19 20 19 17 15 13 13
4 11 12 5 4 4 6 7 8 8 8 15 8 5 8 11 14 14 21 24 29 33 35 35 32 28 27 28 28 23 20 20 25 30 31 30 30 30 25 25 24 23 24 24 21 22 21 18 17 18 20 20 18 17
6 14 5 5 5 5 7 13 6 9 11 15 16 17 22 28 31 30 33 34 34 30 28 26 24 24 24 25 22 18 16 20 23 25 27 29 29 28 25 24 21 20 20 19 18 16 16 17 15 15 15 17 18 19
11 11 5 6 6 6 11 12 13 13 14 16 20 23 30 34 38 36 26 20 20 18 17 18 20 20 22 23 24 27 28 24 25 26 27 28 26 23 21 19 18 18 17 15 14 14 12 12 14 14 14 13 14 14
8 9 8 3 4 5 7 5 5 6 9 14 17 20 21 18 17 21 12 14 16 18 19 19 24 27 27 28 27 28 28 26 26 27 25 23 21 21 20 20 20 19 18 17 15 14 13 13 13 13 13 13 13 14
6 5 4 2 2 2 2 2 2 4 4 5 7 12 14 9 9 8 15 20 18 19 24 25 25 23 24 26 27 27 25 25 25 22 20 20 20 21 21 20 18 17 16 14 13 13 12 12 12 12 12 13 13 13

GFSWCAN_850_spd_051.txt.gz
Wind_Speed
41 36 43 37 33 27 25 21 18 13 11 10 9 9 7 6 6 7 11 12 10 9 11 9 7 4 2 3 1 4 1 5 4 3 2 1 1 1 2 1 3 5 4 3 1 3 4 7 2 3 5 16 19 24
43 36 48 40 35 30 27 23 20 15 14 12 11 10 9 8 8 10 20 19 19 13 14 15 16 11 8 7 3 4 4 3 3 1 2 2 2 3 1 1 3 0 2 1 6 4 2 15 10 4 18 21 23 29
43 47 45 40 36 32 29 26 22 19 15 14 14 13 11 10 11 15 24 28 33 27 16 8 11 11 8 4 5 2 4 2 3 4 3 1 1 2 1 2 3 2 5 1 5 3 11 18 3 25 30 29 32 28
47 53 47 45 38 33 32 28 24 20 17 16 15 15 14 13 15 16 17 11 13 11 7 5 9 10 9 8 4 5 9 7 6 4 2 2 2 2 1 1 2 3 7 5 5 7 27 1 30 38 37 32 29 30
52 54 51 45 39 37 33 30 26 22 19 17 16 15 16 16 17 15 12 11 7 5 6 8 9 10 7 8 7 5 4 4 4 3 3 1 1 2 1 1 1 4 2 1 4 16 16 24 33 29 28 31 34 31
61 57 53 47 41 39 36 32 28 24 19 19 17 16 16 17 18 12 7 11 15 16 6 3 5 7 7 8 8 9 8 7 5 3 2 2 3 3 1 0 1 2 18 11 9 19 27 30 23 18 28 33 28 31
63 60 54 48 42 40 37 33 28 25 22 21 19 17 15 12 8 3 5 12 11 9 4 5 2 2 7 5 4 6 8 6 4 3 4 3 5 4 1 1 6 18 24 23 20 16 19 15 22 28 27 28 30 34
64 60 55 49 44 42 38 34 30 25 24 21 22 20 21 19 16 12 12 13 11 6 4 3 2 2 8 4 3 4 3 4 5 3 2 2 2 2 2 6 15 21 23 17 16 24 25 25 24 24 27 25 31 26
65 60 56 50 46 43 38 34 31 27 27 27 27 21 15 10 5 12 18 16 11 4 5 5 3 2 5 5 2 2 2 3 2 1 4 4 2 3 4 10 16 18 16 19 22 22 20 24 25 26 26 28 24 19
67 60 54 49 47 43 39 35 32 30 30 30 24 5 5 8 15 8 3 3 2 4 5 5 3 1 3 4 1 1 0 1 1 1 1 1 2 7 5 6 10 13 16 17 18 20 25 27 28 28 25 24 19 16
68 58 53 51 48 44 40 37 35 35 34 22 6 4 16 13 3 3 4 5 5 4 4 4 3 0 0 2 2 1 1 1 2 3 3 2 3 4 5 8 11 13 15 16 17 20 20 20 23 24 23 20 18 16
66 60 54 50 47 44 41 38 39 38 21 10 11 18 9 3 3 6 1 3 3 3 3 4 3 2 2 1 1 2 2 2 4 9 2 3 3 3 7 10 13 16 17 18 17 19 20 20 21 21 19 19 18 16
64 58 55 50 46 44 40 36 37 24 22 22 6 5 2 2 6 5 2 3 1 5 5 4 2 2 2 0 2 1 2 3 10 3 4 3 7 6 11 13 18 18 17 18 18 18 19 20 20 20 20 18 17 16
59 57 55 50 46 42 38 36 31 31 8 4 5 4 2 2 1 3 4 4 4 7 8 5 4 2 2 2 1 2 4 2 3 2 4 2 5 11 14 17 20 24 23 22 20 21 21 20 21 21 20 19 18 15
56 53 51 47 45 40 37 35 37 12 5 4 4 3 2 6 6 8 10 8 7 9 6 5 4 2 2 1 2 2 2 4 4 3 3 4 11 14 17 20 24 24 22 23 24 24 24 22 22 23 20 20 18 16
55 50 45 45 42 38 41 33 24 6 4 3 4 6 8 5 4 6 8 9 9 9 6 3 3 3 1 1 3 5 3 4 4 4 3 12 17 19 21 23 22 19 18 21 23 25 26 26 23 22 22 20 18 14
55 42 47 43 40 38 36 28 7 4 4 4 4 10 11 10 9 9 11 10 12 8 2 4 3 6 2 2 3 4 4 3 5 0 13 16 21 23 23 24 19 17 18 20 24 25 27 28 26 23 23 20 17 16
45 52 49 45 43 38 31 8 5 4 5 5 4 12 9 13 15 12 10 14 11 7 6 3 6 3 4 5 4 4 8 9 12 15 20 23 25 24 23 22 17 16 19 21 24 26 26 28 29 26 21 18 18 15
58 53 48 47 41 22 8 4 4 6 4 5 14 15 12 13 11 12 11 15 10 8 4 4 2 3 4 8 7 7 16 20 23 27 28 28 26 23 22 15 14 15 18 22 27 32 31 28 27 26 21 18 17 18
52 48 50 30 20 7 6 6 6 5 5 6 11 10 9 8 13 12 12 14 12 6 4 3 6 6 8 11 16 19 22 24 25 29 31 31 26 23 16 12 16 20 25 28 30 39 36 32 26 24 20 17 17 17
50 47 25 18 11 7 7 6 5 6 10 6 13 9 5 12 7 9 9 12 7 5 7 13 17 17 17 16 18 21 23 22 22 22 27 30 26 18 14 19 23 26 30 32 33 34 31 30 28 23 22 20 17 17
47 31 20 12 7 6 7 6 10 11 5 9 9 6 6 5 5 6 7 8 7 11 13 18 19 13 13 16 14 10 7 10 12 13 15 17 20 23 26 26 30 34 35 36 35 32 30 30 29 25 22 20 17 17
38 24 12 6 6 5 5 5 3 4 3 4 6 4 2 2 3 5 2 7 9 12 13 15 14 13 13 10 6 4 7 13 18 19 21 24 27 29 32 34 33 33 35 35 32 31 30 29 25 23 20 19 16 16
25 7 5 4 6 4 4 3 5 5 4 3 3 2 1 3 4 2 3 5 9 10 8 6 7 7 9 12 15 12 13 18 25 28 27 31 34 36 33 33 33 33 33 33 32 31 31 26 22 19 18 18 16 16
5 5 4 6 5 5 4 3 3 4 3 2 4 2 1 3 2 1 3 5 5 3 3 3 2 5 12 16 19 21 22 26 31 38 39 35 32 34 36 35 32 31 32 33 32 32 32 26 22 21 19 16 16 17
6 2 3 5 4 4 5 5 4 4 3 3 2 4 3 3 2 5 4 6 8 5 8 7 8 15 20 20 25 28 30 29 31 34 35 29 27 29 31 33 35 34 32 30 32 33 30 26 24 22 19 15 14 14
5 1 3 5 8 11 6 7 7 4 4 5 4 5 3 3 6 5 5 7 5 7 11 15 21 27 30 32 32 32 29 25 23 26 26 25 25 24 23 26 33 32 31 30 28 26 26 24 22 20 17 16 15 13
4 7 6 8 6 4 5 3 5 6 5 9 12 4 8 8 5 4 6 7 10 13 20 27 30 31 32 31 26 23 22 21 20 21 23 23 25 25 26 26 28 29 29 28 29 27 26 25 24 21 18 16 15 14
4 11 10 5 4 3 5 5 8 7 10 14 7 4 6 8 8 8 10 16 25 29 32 32 32 30 26 19 17 15 17 19 23 27 31 32 32 31 28 28 27 25 24 24 21 21 20 20 22 18 17 16 15 17
5 10 6 3 4 4 4 8 4 5 10 11 9 9 15 20 21 23 26 28 29 31 30 26 21 18 17 18 23 23 19 19 22 24 27 29 29 31 30 28 25 23 23 24 23 19 15 16 14 12 13 14 13 13
12 5 4 3 3 3 5 9 9 6 8 11 15 18 26 28 31 30 22 19 16 13 11 11 12 14 19 22 25 30 33 28 26 26 27 28 28 28 26 25 24 24 23 23 22 20 18 15 14 13 13 14 14 13
6 4 5 2 1 3 4 4 4 6 6 10 10 15 17 11 8 11 6 8 6 7 9 15 21 23 24 24 26 27 27 29 28 27 26 25 24 23 22 22 22 22 21 20 18 17 16 15 13 12 12 12 12 11
5 5 3 2 2 3 2 3 1 2 5 4 4 4 5 5 7 6 8 6 7 13 17 19 20 19 24 29 29 28 27 26 25 23 21 20 20 20 20 20 20 19 18 16 15 14 13 13 12 11 10 10 10 10

GFSWCAN_850_spd_054.txt.gz
Wind_Speed
29 14 50 42 46 40 33 32 27 23 19 15 13 13 11 9 6 8 15 15 11 10 8 6 6 6 4 1 2 2 2 1 1 2 2 3 3 2 1 1 1 3 2 2 2 4 4 16 2 5 6 11 16 19
26 25 51 48 44 41 37 34 28 24 21 18 16 15 13 10 10 15 20 16 28 15 15 18 15 12 11 7 4 3 2 2 3 1 1 1 1 1 1 3 1 2 3 2 2 2 4 10 2 4 12 16 18 22
26 56 46 50 48 42 36 34 30 26 23 21 20 18 16 14 17 21 30 28 39 29 17 8 10 11 8 5 3 2 2 2 0 3 3 2 1 2 1 2 1 2 7 1 5 3 7 18 7 10 17 16 18 17
10 61 47 54 48 43 41 36 31 29 25 24 23 21 19 22 24 27 38 14 14 14 7 4 7 9 8 6 2 4 7 5 6 5 1 1 2 2 1 1 2 3 4 5 5 6 19 5 16 23 26 19 18 21
25 55 50 52 47 43 40 36 33 30 27 28 27 24 23 28 31 20 16 16 11 5 7 8 11 8 7 7 5 6 6 3 3 2 2 1 1 3 3 3 3 2 2 1 4 13 12 22 25 27 24 21 23 26
34 69 54 57 50 46 41 37 34 30 30 30 29 26 26 28 23 21 7 10 21 25 9 4 6 7 8 8 8 9 7 4 4 2 3 2 1 1 2 1 4 5 5 7 7 13 20 23 23 18 21 26 24 29
60 68 57 55 50 45 41 39 35 32 30 31 29 28 28 26 22 4 7 20 14 9 6 6 4 3 4 3 3 7 6 4 3 2 2 2 1 2 1 3 8 5 7 10 9 9 12 9 17 21 21 22 26 25
68 67 59 56 52 47 43 40 36 32 32 30 28 26 22 14 12 15 21 18 15 6 5 4 2 3 1 1 1 3 2 2 3 2 2 1 0 2 3 3 3 8 10 9 7 11 14 18 17 18 17 18 21 22
71 66 62 57 52 47 45 40 36 34 33 30 28 27 22 15 6 13 16 12 8 4 6 4 3 3 2 2 2 2 1 1 1 1 2 1 2 3 1 3 7 6 7 13 14 14 15 16 17 18 19 17 19 20
74 67 64 58 53 49 45 41 38 37 34 38 33 7 7 10 25 18 5 3 3 5 5 5 3 3 3 2 2 2 1 1 1 2 4 2 3 8 7 4 6 10 11 12 13 13 19 22 21 21 21 20 18 19
73 68 63 58 53 50 46 42 41 41 41 29 7 4 24 21 6 3 4 4 3 4 4 4 3 3 2 2 2 1 2 1 0 2 2 1 3 4 3 4 7 9 13 16 16 19 19 19 21 23 25 23 21 20
75 71 64 58 54 51 47 44 46 49 28 13 14 23 12 4 3 4 2 1 2 3 3 4 4 4 3 2 1 2 1 2 2 5 2 2 2 5 2 7 11 14 17 18 18 21 21 22 21 23 24 25 24 23
75 70 63 57 53 50 46 45 46 30 33 26 7 5 4 3 4 4 3 1 2 5 6 6 4 3 3 2 3 1 2 2 8 3 3 2 3 2 6 10 14 17 21 23 22 19 21 23 24 24 26 25 26 25
75 69 62 57 54 50 46 46 41 38 6 5 5 6 2 1 2 2 2 4 6 10 12 10 6 3 2 2 2 2 2 3 3 4 3 3 2 5 9 12 15 19 22 22 21 22 24 24 25 25 25 23 26 26
73 64 58 55 52 48 49 47 38 19 4 3 5 4 3 5 6 10 15 11 10 14 10 9 7 3 2 2 2 1 2 4 4 2 2 2 7 11 16 18 20 23 24 22 20 22 24 26 28 29 26 25 24 25
71 57 54 54 52 50 52 41 28 8 4 4 6 7 8 7 3 6 10 12 14 12 9 6 4 3 2 1 4 5 3 5 2 2 3 7 13 19 22 23 24 24 25 22 20 21 23 24 26 28 28 28 23 23
69 53 56 53 50 52 44 29 7 4 5 4 6 12 9 10 13 12 13 11 15 8 2 4 3 2 4 2 3 3 4 1 4 3 8 18 23 23 23 23 23 24 21 18 17 17 20 24 28 29 29 29 22 20
57 60 56 53 55 48 32 4 5 5 8 8 7 11 8 14 18 15 12 18 10 6 7 3 6 3 4 4 3 3 7 5 8 10 15 22 25 24 22 22 23 22 18 17 20 26 29 31 35 37 31 27 26 21
67 62 55 54 54 24 6 4 5 7 6 6 15 15 14 16 12 13 15 18 9 8 7 5 2 3 3 7 5 4 6 11 16 20 23 24 23 21 20 19 20 17 17 21 25 28 29 30 31 30 28 26 26 23
62 56 54 55 25 7 7 6 7 9 6 6 11 12 12 10 14 13 19 15 12 6 3 2 5 7 7 5 4 9 13 17 19 21 18 16 16 16 14 14 15 21 25 28 31 34 36 37 33 28 27 27 26 24
56 51 53 25 10 9 8 5 8 7 11 7 17 10 8 14 9 8 9 12 6 5 5 12 15 12 11 11 11 14 15 11 5 10 15 19 19 20 20 21 24 27 31 34 36 35 31 32 30 29 29 27 22 21
51 40 26 10 7 7 9 8 11 10 5 10 10 7 8 5 5 7 8 7 7 10 12 14 15 12 11 10 12 13 7 7 6 8 12 18 24 29 32 32 33 35 33 32 32 32 32 29 28 28 27 24 21 20
36 24 8 6 7 7 6 6 4 4 4 6 6 5 3 3 5 8 4 7 9 12 11 11 10 11 11 11 11 12 13 15 16 16 19 23 30 33 36 37 31 30 32 31 28 27 27 26 26 26 24 21 20 20
27 6 5 5 7 5 6 3 4 6 6 2 3 4 2 3 4 2 3 5 9 7 9 8 9 11 10 7 6 10 12 18 23 26 26 29 34 37 35 32 29 29 28 28 28 27 27 28 28 26 23 22 20 19
7 7 5 6 4 5 4 3 3 3 3 2 4 2 2 4 1 2 3 6 8 8 8 8 10 10 7 7 13 16 16 18 23 28 30 29 29 30 30 29 29 28 27 29 30 30 31 30 27 23 21 20 19 17
7 3 3 4 4 4 4 4 4 4 3 3 3 5 3 2 1 5 4 5 10 10 9 10 12 12 11 16 23 25 25 23 24 28 28 23 21 22 27 29 31 32 29 27 29 31 31 28 27 23 22 19 16 15
5 1 3 5 8 11 6 6 6 4 3 5 4 4 3 3 5 5 6 10 10 8 5 6 11 16 20 27 29 30 25 22 22 24 24 21 19 19 22 25 27 28 29 30 29 28 29 29 27 24 22 20 16 14
4 5 6 8 7 4 5 3 4 4 4 8 12 4 8 8 5 4 4 7 11 8 11 17 23 24 26 31 29 23 16 14 17 21 23 24 22 23 24 24 24 28 30 28 27 26 25 25 23 20 20 19 15 13
4 12 8 4 5 4 3 4 5 5 11 16 6 4 6 7 5 6 6 10 15 20 26 29 29 30 27 20 14 11 13 17 22 27 29 30 30 26 22 25 27 30 28 26 23 25 24 22 21 21 19 15 12 13
5 5 5 2 3 1 2 5 6 10 12 9 6 4 5 10 14 19 23 25 28 29 30 29 23 16 13 14 16 18 17 18 19 20 24 28 29 30 28 28 27 26 25 26 25 23 21 19 17 16 15 13 13 13
9 3 5 4 3 3 9 10 10 8 8 8 11 12 15 16 24 22 21 20 17 14 11 9 8 12 16 19 21 23 28 29 28 26 26 28 29 27 25 25 24 24 23 22 22 22 20 18 17 15 13 13 12 12
4 3 6 4 3 6 8 6 7 5 4 5 5 7 6 6 6 8 8 5 4 3 6 11 15 19 20 20 21 26 29 28 27 26 26 26 24 22 22 22 21 21 19 19 19 18 18 17 16 14 13 11 11 11
4 5 7 5 3 2 3 4 2 1 2 2 2 3 3 3 6 4 3 3 5 9 12 14 16 17 22 27 27 26 25 24 23 23 22 21 20 20 20 19 18 17 17 16 15 15 15 14 14 13 11 10 10 9

GFSWCAN_850_spd_057.txt.gz
Wind_Speed
30 33 35 19 16 56 42 42 36 32 28 23 22 20 19 18 18 20 21 18 13 9 7 4 4 5 3 1 3 3 3 1 2 3 0 1 1 2 2 2 2 5 4 4 4 4 6 6 4 3 4 7 12 14
30 34 32 19 37 59 45 41 37 32 29 24 22 22 20 18 18 20 23 18 24 14 10 13 13 10 8 4 3 4 3 2 2 2 2 1 2 2 1 4 2 3 2 2 2 2 5 2 3 3 5 11 14 17
32 36 26 21 42 55 45 42 36 33 29 28 25 22 19 17 22 24 26 27 27 19 14 5 6 9 6 5 5 2 2 2 1 2 2 1 1 3 3 1 0 2 4 3 4 5 3 10 2 3 12 16 19 17
31 35 28 29 40 55 46 41 37 32 31 28 26 23 20 23 25 28 34 29 18 13 7 4 7 7 6 4 5 7 8 5 5 3 2 1 1 1 1 2 3 4 3 3 7 7 13 2 3 17 21 20 18 17
31 28 14 34 61 53 46 41 38 35 32 30 27 25 27 31 31 33 19 20 12 6 7 8 8 8 7 7 7 9 10 3 2 2 1 2 1 1 0 1 4 4 3 2 2 13 10 15 17 23 22 21 21 24
29 17 13 49 57 51 47 42 40 38 34 32 29 30 33 36 33 20 8 3 12 30 10 4 5 5 8 8 9 9 8 3 3 2 3 3 1 2 2 2 2 3 2 5 5 14 17 19 18 16 19 23 24 25
31 34 19 20 54 49 45 43 42 38 37 35 33 36 40 33 27 5 7 21 13 9 7 7 4 2 5 5 4 6 6 4 2 2 1 2 3 2 2 3 8 4 4 7 9 13 12 7 16 22 22 22 22 23
26 27 23 54 55 49 45 45 41 39 38 37 36 37 35 25 10 6 21 19 10 6 5 4 3 3 4 2 3 3 3 2 2 2 2 2 3 3 4 5 5 1 4 7 5 8 14 19 19 20 20 24 25 26
28 11 52 59 54 50 48 43 42 42 40 38 36 32 28 12 7 15 18 13 3 3 5 3 4 3 4 3 3 2 1 2 1 2 2 3 3 4 4 6 2 2 3 7 10 14 14 14 18 18 19 21 22 26
24 43 56 58 54 50 47 43 44 42 40 38 34 13 7 10 25 20 6 3 2 3 4 4 3 3 3 3 3 3 0 1 2 2 3 3 4 5 5 3 2 2 4 5 10 12 17 22 20 21 21 20 20 24
9 66 59 60 56 50 47 45 44 43 41 33 9 5 25 30 9 4 4 2 1 3 4 4 4 5 3 2 3 1 1 1 2 2 2 2 2 5 8 5 0 3 5 8 10 14 16 17 21 22 24 24 26 26
46 65 64 61 55 51 49 47 48 44 25 16 15 31 21 5 3 4 1 1 1 3 4 4 5 4 4 3 3 3 1 2 2 3 2 2 2 6 4 2 3 6 9 13 16 18 17 17 18 20 23 27 28 29
72 68 66 60 55 51 48 48 47 34 32 37 15 6 6 3 3 5 6 2 3 7 7 6 4 4 4 3 4 2 4 2 4 2 2 1 6 3 3 6 9 12 15 18 21 22 21 21 21 22 25 26 27 28
73 71 67 60 53 49 48 50 37 36 23 5 6 5 2 3 2 2 3 4 6 10 13 10 7 3 3 2 3 3 2 3 2 3 2 4 4 1 6 10 14 15 19 22 24 23 21 22 25 26 27 28 30 31
73 70 65 56 50 49 52 44 33 30 4 5 4 4 2 6 7 9 13 12 11 13 12 10 7 4 2 2 1 0 3 3 3 2 2 5 1 7 13 15 19 22 24 25 25 23 21 20 19 22 27 29 31 32
74 65 61 54 51 51 52 38 35 5 4 4 5 6 10 9 5 7 9 11 16 14 10 5 4 3 2 2 2 4 2 5 1 1 4 4 9 15 17 21 24 24 25 25 24 21 21 21 26 31 33 32 34 33
74 49 61 54 52 50 42 29 12 2 4 3 3 12 11 17 13 10 11 11 18 7 2 3 3 2 4 2 3 4 4 1 3 2 6 12 17 19 22 22 21 21 23 24 21 20 22 23 27 31 34 37 35 32
48 66 60 57 54 49 25 13 5 4 5 6 3 9 15 17 20 16 11 19 7 5 5 2 7 3 4 4 3 3 6 6 4 8 12 15 15 17 18 19 20 21 21 19 19 23 27 30 34 37 37 34 33 32
71 67 60 55 51 30 10 5 4 6 5 7 13 17 17 18 16 15 20 14 9 8 10 5 2 3 3 5 4 8 8 7 7 9 12 9 9 13 15 16 18 18 21 25 29 31 34 34 35 34 33 33 34 33
68 61 56 52 34 13 6 6 6 7 5 4 12 14 12 11 16 17 17 12 11 5 2 2 4 5 5 5 8 5 6 8 9 9 6 7 10 14 16 19 21 23 28 31 33 33 33 34 32 31 32 31 32 34
65 57 49 33 13 6 8 6 8 7 7 9 15 8 8 13 9 8 7 9 2 3 4 9 12 10 9 9 9 9 10 11 11 9 8 11 12 17 23 25 27 32 33 31 32 34 30 30 30 30 32 31 30 30
52 48 31 11 6 7 10 9 8 8 7 9 7 6 7 4 4 5 7 5 6 8 10 10 12 11 12 13 12 11 11 11 11 14 13 15 21 26 29 31 33 35 33 31 31 32 32 31 31 31 31 32 32 30
48 30 10 7 8 7 6 5 6 5 4 4 4 4 3 3 4 9 3 6 9 13 15 15 13 11 11 11 11 9 8 10 15 20 22 24 28 32 33 32 30 31 32 33 30 30 32 31 30 31 32 31 29 28
31 8 5 5 8 5 4 4 6 6 5 2 2 4 2 3 6 2 3 5 9 10 10 10 11 12 11 12 9 4 6 10 15 18 19 22 28 32 29 30 29 25 27 31 31 31 31 32 33 32 29 27 25 24
8 8 5 5 4 5 5 3 3 3 3 2 3 2 3 4 2 2 3 5 9 10 10 12 11 11 12 11 9 8 12 16 21 26 27 28 28 27 28 28 30 27 28 30 30 30 32 32 31 31 29 26 24 23
7 2 3 3 3 3 4 5 4 4 4 3 2 4 3 2 2 5 4 5 9 9 12 9 8 9 11 13 13 17 23 25 29 30 30 27 23 22 25 29 33 35 32 30 29 32 35 32 30 30 29 25 20 20
4 1 3 4 7 10 6 8 6 3 4 5 5 5 3 3 5 4 5 7 7 10 9 7 6 7 10 14 20 24 29 32 30 28 26 23 22 22 24 28 31 33 32 30 30 32 32 30 29 29 28 25 21 19
4 5 5 7 6 5 5 3 3 4 4 9 12 5 8 7 4 3 3 3 8 11 10 8 10 16 19 23 25 27 27 22 19 19 22 25 23 22 25 27 26 26 28 30 31 29 29 28 28 28 27 25 21 16
5 10 8 5 5 5 3 3 4 4 10 17 4 3 5 5 4 4 4 3 4 9 14 18 22 25 27 24 18 14 13 16 20 24 27 29 30 30 27 25 27 29 30 30 26 25 26 26 25 26 25 23 21 18
4 4 5 3 3 3 2 4 6 12 8 10 5 3 2 5 6 8 13 17 20 22 23 24 23 19 14 13 15 16 16 18 19 20 24 29 31 32 33 32 30 27 26 25 24 24 23 23 21 20 20 19 18 18
7 4 5 5 4 3 8 12 12 9 8 5 4 3 6 9 16 12 10 11 9 9 8 5 4 8 11 15 19 23 28 29 30 30 29 30 29 28 27 26 24 23 23 22 21 22 22 21 20 19 18 17 15 15
3 3 5 4 3 7 8 4 5 3 3 2 2 4 4 4 5 4 3 4 4 4 4 9 12 14 16 18 22 26 28 30 31 29 27 26 25 23 22 22 22 21 20 20 19 19 18 19 18 17 16 15 14 13
4 6 8 7 4 3 4 5 3 2 1 1 1 2 2 3 5 3 2 2 5 9 12 15 16 17 20 24 24 27 29 27 25 23 22 21 21 21 20 21 19 17 16 16 16 17 18 16 15 14 13 12 12 11

GFSWCAN_850_spd_060.txt.gz
Wind_Speed
32 30 27 28 33 32 13 22 42 36 33 28 24 22 22 23 25 25 26 19 15 9 9 6 8 5 2 2 2 4 3 0 1 1 1 1 2 1 2 2 1 4 3 3 3 3 3 7 0 1 3 7 12 14
31 30 25 27 30 32 31 18 41 35 32 29 25 22 23 23 24 23 28 21 15 12 10 12 12 9 8 6 6 3 3 4 3 2 1 1 1 1 2 2 2 1 2 1 4 2 5 7 6 7 12 13 16 19
29 27 24 27 29 29 14 41 38 35 32 30 27 22 23 24 24 23 28 24 21 23 16 4 8 8 6 7 7 3 3 3 2 5 3 2 2 2 1 1 2 3 3 0 4 5 6 7 13 13 17 19 19 18
29 25 24 26 26 13 32 39 36 34 31 29 25 25 25 23 23 24 30 26 20 14 6 6 6 5 5 6 5 5 7 7 9 7 3 1 2 1 2 1 1 2 3 3 3 10 8 14 14 20 20 17 18 21
27 24 24 28 23 19 9 36 36 34 32 28 26 25 23 25 26 29 28 22 17 7 6 9 9 9 8 8 9 10 10 8 4 4 2 1 2 1 1 1 2 4 2 2 2 4 1 5 13 14 14 18 20 22
25 25 26 25 29 26 28 40 35 32 31 30 28 25 27 30 31 29 10 4 8 30 10 3 5 6 10 9 8 7 8 6 3 4 4 2 1 1 1 2 6 8 5 2 3 6 7 10 10 10 18 19 21 20
24 23 19 7 24 33 46 42 37 34 31 30 29 32 38 32 26 5 8 22 17 10 7 6 4 3 7 8 6 7 5 4 3 3 3 3 1 0 1 2 15 9 4 3 4 5 2 4 11 17 17 21 23 22
24 21 16 9 37 46 44 42 38 35 34 32 33 37 35 21 12 22 32 18 12 9 6 4 2 3 4 3 3 3 2 2 3 2 3 2 2 1 2 5 11 6 3 1 3 5 7 11 12 14 16 19 23 25
25 21 28 23 36 43 44 41 39 38 36 34 39 36 22 7 7 22 17 11 10 6 6 3 4 3 6 3 3 2 1 2 1 0 2 2 2 3 5 10 9 5 3 3 4 6 7 11 15 16 18 20 22 27
23 22 16 16 52 48 46 42 39 39 37 38 38 12 6 10 31 19 4 3 4 5 5 4 4 3 5 4 2 3 2 2 1 1 3 1 3 7 6 8 6 3 0 4 8 12 15 18 18 20 20 21 22 25
24 14 33 47 51 50 46 44 44 42 42 35 10 5 28 29 8 4 4 3 2 3 3 5 6 4 4 3 3 1 2 1 2 1 2 2 2 2 9 6 4 3 3 5 8 11 14 16 19 20 23 23 24 25
28 16 56 51 54 51 47 45 48 47 27 13 11 28 21 4 4 5 1 2 1 3 4 5 5 5 5 4 4 4 2 2 2 3 1 2 1 8 6 3 2 3 6 10 13 16 18 19 18 19 21 23 23 24
15 56 47 57 54 50 46 48 50 30 22 34 11 6 5 2 3 5 6 1 2 7 8 8 4 5 5 4 4 2 3 2 5 2 3 1 9 6 3 2 4 8 11 15 17 18 20 20 18 18 21 18 24 30
32 60 55 57 53 47 45 50 36 35 27 4 6 5 3 2 3 2 2 4 6 15 21 16 7 4 4 3 2 3 2 4 2 2 4 3 10 6 1 6 11 16 18 20 22 23 24 23 20 18 17 24 29 31
66 59 57 55 54 46 51 42 39 24 4 3 4 4 2 5 7 12 16 15 18 23 18 13 8 5 2 3 0 2 3 2 4 4 2 10 8 2 5 12 17 21 22 22 22 22 22 20 20 21 22 25 29 33
67 55 58 56 50 50 53 38 25 5 3 3 5 6 9 8 6 9 19 19 23 20 12 7 4 4 1 3 3 3 4 5 3 2 6 8 5 7 13 17 19 20 20 20 20 21 20 21 23 26 30 32 35 35
66 45 62 54 50 56 38 29 7 3 5 4 4 13 10 15 10 13 22 17 20 7 2 4 4 3 3 3 0 2 4 3 7 6 4 4 8 12 13 13 14 15 16 17 17 18 22 25 28 32 36 37 34 32
46 62 60 54 61 45 31 6 4 5 7 6 6 11 8 10 18 20 20 23 7 6 6 3 7 3 4 5 3 3 7 9 8 4 7 8 9 6 6 9 12 15 17 20 23 27 29 30 31 32 32 33 34 35
65 68 61 58 49 30 8 4 4 6 5 7 14 15 13 18 18 22 26 13 11 11 13 5 4 3 3 6 5 8 12 13 9 8 10 9 5 6 7 10 14 17 21 25 28 27 26 26 27 29 30 31 34 36
65 62 56 54 35 10 6 6 6 7 5 6 10 10 11 11 19 22 17 15 13 7 3 2 4 5 6 5 6 8 8 8 10 10 11 6 6 8 11 15 20 24 28 29 28 27 27 29 29 29 31 32 33 36
65 58 58 40 12 8 8 6 7 6 10 8 14 4 8 14 12 8 8 10 2 3 4 7 9 7 7 6 6 8 8 10 10 12 11 11 11 15 18 22 26 28 30 31 29 28 27 30 32 33 33 34 35 34
53 53 39 21 6 6 9 7 10 11 7 9 6 5 7 5 5 5 7 2 4 6 7 6 8 8 9 10 11 11 10 9 10 12 13 15 20 23 26 28 29 31 30 29 27 27 30 31 32 33 34 36 35 35
53 40 19 5 7 6 6 5 4 5 4 4 4 4 4 3 4 10 2 5 7 8 12 14 12 10 10 9 9 8 7 5 8 11 14 16 20 24 27 29 28 28 28 28 26 27 31 32 31 34 37 35 34 35
39 13 5 5 6 5 5 6 6 6 5 3 3 3 2 3 6 1 2 4 7 7 8 7 8 9 9 10 11 8 6 4 8 13 17 21 26 29 28 29 27 26 25 25 26 29 30 31 32 35 35 33 33 33
10 5 3 7 6 5 4 3 3 3 4 2 3 2 1 4 2 1 3 4 7 7 8 9 7 8 9 8 8 10 8 11 15 20 26 28 32 31 29 26 26 26 27 28 28 29 30 30 33 35 34 31 31 31
7 5 4 3 2 4 2 4 3 4 4 3 2 4 3 2 2 4 3 2 4 5 5 5 5 6 6 5 6 9 13 19 24 29 34 34 29 25 24 26 30 33 32 28 28 30 31 33 35 33 32 30 28 27
5 2 3 5 8 11 7 7 6 4 4 6 5 5 3 3 5 4 3 3 2 4 7 7 5 4 3 5 9 14 19 25 29 31 27 22 19 19 19 22 26 27 29 27 28 31 34 34 32 31 31 29 27 25
4 4 5 6 7 5 5 4 4 4 4 9 12 4 9 8 5 4 4 4 6 8 9 6 6 7 10 13 19 23 21 17 16 18 21 22 21 23 23 23 24 23 27 32 32 31 29 27 28 28 29 29 29 25
6 10 8 4 5 5 4 3 3 4 9 15 4 3 5 5 6 6 7 6 5 4 7 10 14 18 21 22 17 10 11 16 21 24 26 28 30 29 29 29 32 30 28 27 26 24 24 24 24 25 26 26 26 24
4 5 5 3 4 4 4 4 5 11 11 9 6 5 5 6 7 6 5 7 11 14 15 16 16 13 7 7 10 14 16 19 21 22 25 29 30 30 29 29 29 27 27 26 25 23 21 21 21 20 20 20 20 20
6 4 6 7 5 3 8 15 13 13 8 5 6 4 3 1 1 1 2 4 3 2 3 2 5 7 10 13 15 18 22 23 27 28 27 26 26 26 25 25 25 26 25 23 22 22 21 21 20 21 20 19 18 18
4 5 6 4 3 8 9 3 3 4 3 2 2 2 1 0 0 1 2 3 3 4 3 7 10 12 13 15 18 19 21 26 30 30 27 25 23 22 23 24 24 23 21 20 19 19 19 20 21 19 18 16 16 15
7 11 10 8 5 3 3 4 4 3 2 1 2 2 2 2 4 5 5 4 2 6 9 10 11 14 16 16 17 21 25 29 31 28 23 21 22 22 21 20 19 18 18 17 17 18 18 17 16 15 14 14 14 13

GFSWCAN_850_spd_063.txt.gz
Wind_Speed
39 34 31 28 27 23 22 26 21 8 30 33 29 29 26 27 38 31 18 13 12 9 11 7 8 5 7 6 4 6 4 1 2 2 2 1 2 3 3 6 5 5 4 3 1 2 3 7 3 1 4 5 7 10
36 32 29 25 25 20 21 27 17 16 28 28 29 25 24 26 32 29 21 14 10 12 12 14 14 10 10 8 10 4 2 2 2 3 1 2 2 1 4 3 1 2 3 4 3 4 4 7 19 12 7 3 7 9
31 29 25 24 23 18 24 19 13 12 33 29 26 25 22 23 27 26 26 21 16 22 12 7 10 9 7 8 8 4 3 4 2 3 4 2 3 2 3 3 3 1 2 3 4 3 9 18 12 8 7 7 6 9
27 22 21 21 18 20 20 17 18 35 32 30 28 25 22 25 25 22 27 22 16 13 7 6 5 7 6 5 5 5 8 8 8 4 3 2 2 1 2 2 3 3 4 4 3 3 17 9 7 5 5 6 7 10
23 20 19 17 13 20 6 18 35 34 34 28 26 24 23 25 22 22 26 21 20 2 7 9 10 10 8 7 8 10 11 12 5 3 3 1 2 2 2 2 2 5 5 4 4 9 2 2 3 2 8 9 11 12
19 19 19 17 15 13 21 15 29 34 33 27 24 21 23 22 23 27 11 13 8 18 10 3 5 7 10 9 9 9 9 7 5 4 2 2 1 1 2 2 1 5 6 5 7 5 2 3 2 4 9 10 12 13
20 19 19 18 17 17 15 10 37 35 31 26 24 21 24 29 29 12 8 19 21 10 7 6 3 4 8 7 8 8 6 5 4 3 2 2 1 0 2 3 6 9 7 5 4 1 3 2 4 8 10 11 13 15
20 18 18 17 21 24 27 29 35 31 29 28 26 31 30 20 11 15 27 25 12 7 6 4 1 2 3 3 3 3 3 3 4 2 2 2 0 1 2 4 13 12 7 4 4 3 3 5 7 10 12 14 17 18
18 18 17 7 20 37 39 40 36 32 31 31 39 33 18 15 15 19 17 13 9 5 7 4 4 3 6 4 3 3 2 2 2 2 0 1 1 2 4 8 13 10 5 4 1 2 4 7 11 13 15 16 18 21
20 19 19 7 36 43 46 40 37 34 33 43 35 10 6 12 26 18 4 3 3 5 5 4 6 2 6 5 2 3 2 2 1 1 1 0 3 2 7 13 11 7 5 3 3 6 10 13 15 17 18 19 19 21
23 21 21 33 36 41 42 42 38 40 40 34 10 4 22 30 9 3 3 4 2 4 4 5 6 5 4 3 3 2 2 0 2 1 1 2 2 1 9 9 7 5 3 3 6 8 10 14 18 19 20 20 20 19
27 21 26 24 48 41 42 43 46 50 33 16 10 25 19 5 3 5 2 2 3 4 5 7 6 7 6 4 4 4 2 1 2 2 2 2 2 11 9 8 5 2 2 5 8 11 13 15 16 19 20 19 17 17
26 32 24 44 51 43 47 49 46 45 22 31 10 7 4 2 5 6 5 2 2 8 10 10 4 5 5 4 4 3 3 2 5 1 3 3 11 11 9 7 2 3 8 11 13 14 15 16 17 17 18 18 18 24
37 21 60 45 47 48 50 52 46 33 24 5 7 4 4 2 4 3 3 5 6 15 26 21 9 5 4 2 3 4 2 4 2 1 4 3 16 14 9 4 5 9 13 14 14 16 17 19 19 18 18 19 24 28
33 52 54 47 47 50 54 50 34 24 4 3 4 4 3 5 6 10 15 13 14 30 20 15 9 5 2 3 1 3 3 1 5 4 3 10 16 12 7 6 10 13 15 16 16 16 17 17 19 23 23 26 28 32
52 64 55 52 53 55 55 39 27 6 3 3 5 6 8 7 3 9 20 24 29 21 13 8 4 4 1 4 3 4 6 5 4 3 5 13 13 10 8 10 12 12 11 11 11 14 17 21 24 28 30 29 28 27
66 39 55 56 56 59 42 27 6 3 4 4 5 12 4 12 8 18 24 22 24 9 3 4 4 3 3 3 0 3 5 3 6 9 10 10 9 9 11 10 7 8 9 11 14 17 22 23 22 22 26 28 26 28
46 56 58 58 63 47 32 6 4 5 6 6 4 7 9 11 20 22 17 27 9 7 7 4 8 3 4 4 3 4 8 6 8 10 7 7 9 10 8 7 6 8 11 15 18 22 21 20 22 24 26 28 31 33
56 64 61 65 53 32 9 5 3 6 6 7 12 14 14 13 14 19 27 12 11 12 15 5 4 3 3 6 6 8 8 11 13 12 9 9 11 9 8 7 9 13 17 21 23 24 22 19 20 23 26 28 30 32
64 65 63 52 38 13 6 7 6 8 5 5 10 11 11 8 20 20 16 16 14 7 3 2 3 6 6 5 4 4 4 8 11 10 11 10 9 9 10 12 15 19 24 27 26 25 23 22 22 24 26 27 30 35
66 61 53 38 13 7 7 7 6 6 10 9 15 6 9 12 10 7 8 9 2 2 3 5 7 7 6 4 4 5 8 9 10 9 10 11 8 13 17 19 22 26 27 28 28 27 23 21 25 27 28 30 33 35
57 55 36 19 7 6 8 7 11 11 7 12 7 6 10 4 3 4 7 1 3 4 5 5 7 8 6 5 5 7 8 10 9 8 8 10 13 16 19 22 26 29 29 27 24 24 24 24 26 28 30 32 34 34
55 36 19 6 7 5 6 6 5 4 5 6 5 5 3 2 4 7 1 4 4 8 10 8 6 6 6 5 5 6 8 8 7 6 7 11 15 18 22 27 27 26 26 25 22 22 23 24 26 29 31 32 34 33
39 13 4 4 5 5 6 4 4 7 7 3 3 4 1 2 6 1 2 3 6 7 8 6 6 6 4 4 5 5 7 8 7 9 13 18 22 27 31 31 25 21 20 22 23 22 23 25 27 29 31 32 31 31
9 5 4 5 4 5 4 3 1 3 4 3 4 2 1 3 2 1 3 4 7 8 9 8 6 3 2 1 3 3 7 9 11 16 20 23 29 33 29 23 22 24 23 25 24 25 25 26 27 30 30 28 29 29
6 4 2 2 2 5 3 4 3 4 5 3 3 5 3 2 2 5 4 5 6 7 6 5 6 6 4 3 2 1 4 9 16 22 25 25 21 20 22 24 27 28 27 27 28 28 30 34 33 30 28 26 26 26
4 2 2 3 7 11 7 9 8 6 4 5 5 5 3 4 6 4 6 6 6 8 8 9 8 7 6 4 3 7 12 18 20 18 15 17 18 16 19 22 24 25 28 29 31 35 34 30 27 26 26 26 25 25
4 5 6 6 8 7 6 4 3 3 4 8 12 5 8 7 5 6 6 9 8 9 9 7 6 5 5 7 11 16 15 10 11 15 17 18 20 22 21 19 22 26 29 28 26 26 23 22 23 23 25 26 27 24
4 9 7 4 7 8 6 3 3 3 8 17 4 4 4 4 9 11 11 10 9 8 8 7 6 7 11 13 9 5 9 12 16 19 21 24 27 25 23 23 24 23 23 23 21 21 20 19 18 21 23 24 24 23
3 4 5 5 4 3 2 4 6 11 11 9 6 7 8 10 13 13 12 11 10 9 8 8 6 1 3 2 6 8 11 15 16 19 24 28 28 25 23 22 22 24 24 23 22 20 18 18 17 17 18 19 19 18
6 6 7 7 5 4 10 15 14 14 9 6 9 8 9 7 10 10 10 8 6 5 5 7 5 2 4 6 9 12 13 15 19 22 24 23 20 19 19 20 22 21 21 21 20 20 20 19 19 19 18 16 16 16
4 4 7 4 4 10 10 5 4 4 4 3 3 5 5 5 5 8 8 9 10 9 7 3 2 3 6 9 10 12 14 18 20 23 23 19 16 18 19 20 19 19 18 19 19 19 18 18 18 17 17 16 16 16
7 13 11 8 5 3 4 5 3 3 4 3 2 3 3 4 4 8 12 13 11 6 3 2 3 6 8 9 12 14 16 20 23 23 20 18 18 17 16 16 16 16 17 17 17 17 16 16 17 17 16 16 15 15

GFSWCAN_850_spd_066.txt.gz
Wind_Speed
38 36 33 32 26 22 19 24 18 13 6 3 22 30 29 30 28 34 15 10 5 8 11 6 7 7 8 6 5 8 5 1 2 2 2 3 3 4 3 4 5 5 5 3 1 1 6 2 2 5 4 6 2 4
36 35 30 28 24 20 19 17 16 13 13 11 25 26 27 31 27 26 16 12 8 9 12 17 16 12 10 8 10 7 2 3 3 3 1 2 2 1 3 3 1 2 5 4 6 3 1 2 6 9 7 3 3 7
33 29 31 25 19 16 19 17 14 4 8 21 24 30 25 24 33 29 16 15 14 19 12 9 11 11 8 9 9 4 4 4 3 3 5 2 2 2 3 4 2 2 1 3 3 2 4 11 9 5 2 2 2 5
32 29 24 18 14 16 20 15 14 7 13 24 23 27 21 23 28 28 19 18 12 12 6 7 6 8 7 6 5 5 8 8 7 4 4 2 2 1 2 1 2 4 5 4 2 4 9 4 3 3 2 1 2 4
27 28 20 13 13 17 15 13 20 22 22 25 28 22 23 22 24 23 22 17 15 2 7 7 11 9 8 6 6 7 9 10 4 3 3 1 1 2 2 2 2 4 4 4 4 15 4 8 6 5 0 2 4 6
26 21 13 11 12 10 5 11 20 27 29 27 28 23 25 26 22 25 10 11 12 12 9 3 5 6 8 8 8 8 9 6 5 4 3 2 1 1 2 2 2 2 4 4 5 16 5 7 6 4 3 4 6 8
21 14 12 13 12 15 4 28 25 27 26 32 29 25 27 25 27 11 6 16 17 10 7 5 2 3 6 6 7 8 7 6 4 4 2 2 2 2 2 2 2 8 8 10 8 8 7 8 5 4 5 6 7 9
16 14 16 15 14 16 11 19 28 26 27 28 26 29 27 23 21 5 11 26 17 5 5 4 2 3 2 3 3 3 3 3 5 3 2 1 2 1 2 3 11 12 9 7 6 4 5 4 2 4 6 8 11 13
15 18 18 17 18 17 14 25 31 26 29 28 26 32 18 13 5 12 22 16 6 2 7 4 5 4 5 4 4 3 2 3 2 2 1 1 0 2 3 10 14 12 6 8 5 4 3 1 4 7 10 12 14 16
19 20 19 20 21 22 23 35 29 30 28 37 34 11 7 9 22 21 11 6 3 3 4 4 5 3 6 4 3 3 3 1 1 1 1 0 3 3 2 10 14 10 7 8 7 4 3 6 10 12 14 15 16 18
22 20 20 22 28 32 46 39 36 33 46 29 9 4 21 28 13 4 4 2 2 4 3 5 5 6 5 3 2 2 2 1 1 3 2 2 2 4 10 12 10 8 7 4 1 4 7 12 15 17 18 18 19 19
23 20 25 23 31 52 49 42 42 53 29 14 8 23 25 6 3 4 0 1 3 4 5 7 7 7 7 4 5 3 3 1 2 2 2 2 3 12 13 11 9 7 4 3 6 9 11 13 14 16 19 19 18 19
24 25 18 42 43 47 43 40 53 35 22 28 9 8 5 2 3 6 6 2 3 8 10 10 3 6 6 4 5 3 3 2 5 2 3 4 9 17 14 12 10 6 5 8 11 12 13 13 13 16 17 16 18 22
28 29 28 34 41 42 43 50 46 28 20 6 8 4 4 2 4 3 3 4 6 17 27 21 9 5 5 3 3 4 2 3 2 1 5 3 17 18 15 13 10 7 9 13 13 13 12 13 14 14 16 20 24 28
35 31 24 43 38 42 49 51 33 25 4 2 3 4 3 4 4 8 14 11 16 34 21 16 10 6 2 4 1 3 3 2 5 4 3 5 15 18 16 13 9 10 13 13 11 11 11 14 18 22 22 22 22 24
35 29 42 48 42 49 51 46 31 8 1 2 4 5 6 5 2 7 16 22 33 24 14 8 4 4 2 4 3 4 6 5 4 3 6 11 16 17 14 11 11 13 11 10 9 11 15 19 22 23 22 21 22 23
40 22 53 54 50 55 45 31 12 3 3 3 3 9 4 7 9 12 24 26 25 7 3 5 5 4 4 3 1 3 5 3 5 8 10 12 12 12 11 12 13 11 10 10 11 14 18 20 22 22 23 23 25 26
30 40 58 53 59 50 29 17 4 4 5 6 3 4 4 8 20 25 19 26 7 4 7 4 9 3 5 5 3 4 9 5 5 8 10 10 8 9 11 11 10 10 10 11 15 20 22 24 25 23 22 24 28 30
45 57 56 62 62 34 10 7 2 6 5 6 8 10 9 19 14 17 27 12 8 7 14 5 5 3 3 6 5 6 7 8 8 11 11 8 8 10 10 9 10 11 14 18 22 26 27 26 25 24 24 25 29 30
57 57 62 62 40 11 6 6 5 7 5 5 8 8 10 11 17 21 14 13 14 5 2 2 3 6 6 7 6 3 3 5 8 9 8 7 8 8 7 9 13 17 21 25 27 28 28 28 23 20 22 25 27 30
61 64 58 44 13 6 6 7 6 6 9 8 13 6 8 15 9 6 7 8 3 3 3 4 8 10 8 6 4 4 4 6 7 7 6 5 4 7 9 11 14 17 23 27 28 27 25 23 21 21 24 26 26 28
55 62 42 20 5 6 7 6 11 11 6 10 6 6 8 5 3 3 5 2 3 3 5 9 11 9 7 5 4 5 6 7 6 5 5 4 6 9 12 16 22 27 28 27 23 21 21 20 22 23 26 28 29 31
57 40 23 5 6 5 7 7 5 4 5 6 5 4 3 3 5 5 2 3 4 7 9 10 10 9 8 6 5 6 6 6 5 4 3 5 10 15 18 24 26 26 24 22 20 19 21 21 23 24 27 29 32 33
42 14 4 3 5 5 7 4 4 6 7 3 3 4 2 3 8 1 2 3 6 9 12 12 10 8 7 6 6 4 4 5 5 5 6 12 18 21 25 24 21 20 21 21 22 22 23 25 25 27 31 32 30 28
9 2 2 4 4 5 5 3 2 3 4 3 4 2 2 3 2 1 3 4 10 12 14 13 11 10 8 7 6 3 3 3 4 8 12 18 22 22 19 20 23 24 25 24 24 27 28 29 32 31 28 25 25 26
6 1 2 3 3 4 4 5 4 5 4 4 4 4 3 2 3 5 4 7 9 15 13 13 12 12 11 8 7 4 2 3 7 15 16 14 15 19 21 24 27 26 24 26 29 33 33 31 29 27 25 24 23 24
4 1 3 4 6 9 6 7 7 5 5 4 4 4 3 3 4 4 7 10 12 15 15 15 13 11 8 7 5 3 6 12 13 9 10 14 17 18 20 23 23 23 26 29 29 28 28 28 27 25 25 24 24 24
3 6 6 8 5 3 6 3 3 3 4 8 10 4 10 8 5 7 8 13 14 15 15 15 13 9 6 5 5 9 9 5 7 10 14 15 15 20 19 18 21 21 22 23 25 26 24 23 22 22 24 25 25 23
3 9 8 3 6 8 6 3 3 4 9 12 4 3 4 5 10 11 17 16 16 16 14 12 9 5 5 8 5 2 5 9 12 14 16 17 19 19 18 18 19 20 21 21 19 19 18 17 17 20 21 22 22 21
4 4 6 4 4 3 2 3 8 14 14 11 8 7 6 9 14 17 18 17 16 14 11 7 6 6 4 3 2 5 8 10 12 14 18 20 21 19 18 18 18 18 17 18 18 18 17 17 16 15 15 15 15 14
7 4 7 7 5 3 9 16 17 17 11 7 9 8 8 9 13 16 16 14 13 10 9 8 10 7 4 2 4 6 8 11 14 17 19 20 18 16 16 16 15 15 16 17 17 18 18 18 18 17 17 16 16 15
4 4 6 4 4 9 13 6 5 4 5 4 4 7 7 6 8 14 14 12 12 14 14 11 7 4 1 2 5 8 10 13 17 18 19 17 13 13 12 11 13 14 14 15 16 16 17 18 18 18 17 17 17 16
7 14 15 8 5 4 5 5 3 3 4 2 2 5 4 8 5 12 16 17 18 14 11 9 6 2 1 3 6 10 12 16 17 18 17 13 11 11 10 10 11 11 11 12 13 15 16 17 17 18 18 17 17 16

GFSWCAN_850_spd_069.txt.gz
Wind_Speed
32 32 32 31 28 27 23 15 15 12 11 1 11 16 22 38 32 17 1 4 4 8 10 5 6 5 7 6 5 7 5 2 3 3 2 2 2 3 2 3 5 5 4 2 2 0 6 2 3 5 3 8 8 4
30 31 31 30 27 24 19 12 12 8 10 4 10 14 21 24 36 25 6 1 7 9 12 16 15 12 9 7 10 8 3 3 4 4 1 2 2 1 3 2 2 2 5 4 6 4 1 1 2 5 6 6 3 2
29 29 28 25 25 19 14 11 11 4 9 10 11 21 19 24 23 23 11 6 9 19 12 9 11 11 8 9 10 5 4 5 4 4 5 2 2 2 3 4 2 1 2 2 2 0 1 4 6 6 3 1 1 2
27 27 26 24 21 14 13 12 10 6 1 19 13 14 19 23 22 17 14 11 9 10 6 5 7 8 8 6 6 5 8 9 9 5 3 2 2 2 3 1 2 3 3 4 1 1 1 9 6 4 2 2 2 3
26 26 23 23 15 12 14 15 15 14 7 21 9 15 21 21 26 17 10 9 8 2 6 6 10 9 8 7 7 9 11 11 5 3 3 1 2 2 1 1 2 5 5 4 5 7 4 4 12 7 4 4 4 5
24 23 20 16 10 11 6 6 12 23 25 15 13 23 20 19 27 17 4 10 6 9 8 2 4 5 7 8 8 10 9 6 4 4 3 3 2 1 2 2 3 5 5 4 1 13 4 7 8 8 4 6 7 8
23 19 16 8 7 5 7 10 14 25 24 17 19 20 18 26 24 10 4 12 12 7 5 4 2 3 6 6 6 7 6 5 4 4 3 2 2 2 2 3 3 6 6 8 11 9 5 8 5 8 6 7 8 10
20 16 10 7 5 12 3 13 22 23 18 21 24 23 27 23 20 2 2 21 16 4 5 3 1 2 3 3 3 3 3 3 5 3 2 2 2 1 2 5 7 9 8 7 7 5 3 7 5 6 7 8 12 14
17 13 12 12 9 14 8 26 19 11 28 26 27 25 20 10 6 3 19 15 9 2 7 3 4 4 6 4 3 2 2 3 2 2 1 2 1 3 4 8 14 15 9 6 7 5 5 4 4 5 9 11 15 18
16 13 16 15 13 17 10 27 18 20 28 28 31 10 5 9 11 18 7 6 3 1 3 4 6 3 5 3 2 2 3 1 1 1 1 1 3 6 6 8 13 14 7 10 9 7 6 5 7 10 12 14 17 18
18 17 20 18 19 18 15 27 19 31 28 32 6 4 14 23 15 5 4 3 3 2 2 5 5 5 5 3 2 1 2 0 2 3 2 2 3 4 8 10 16 12 10 9 7 5 5 9 12 14 15 16 17 18
20 21 24 21 22 24 17 32 27 38 30 9 6 17 20 6 3 4 1 1 2 5 6 7 8 6 6 4 4 1 3 2 2 2 1 3 3 9 14 14 14 12 11 9 7 7 9 12 14 15 17 17 16 17
21 25 25 25 30 30 25 39 32 35 21 21 7 8 5 2 3 6 6 3 2 9 11 10 3 6 6 4 6 3 4 1 4 2 3 4 3 12 16 14 13 13 11 9 8 11 13 14 14 14 16 16 19 22
24 27 23 27 32 39 46 39 45 30 23 5 7 3 5 3 5 4 4 4 6 13 26 19 7 5 5 4 3 5 2 3 1 1 5 3 12 15 16 14 14 13 10 10 12 14 13 12 12 13 17 21 23 23
27 24 19 30 33 49 49 47 45 32 4 4 3 4 5 3 2 4 11 11 12 33 25 15 9 6 3 4 1 4 3 2 5 4 3 4 9 17 18 17 15 12 11 13 14 13 11 12 15 20 21 21 21 22
30 26 27 46 46 49 51 55 29 14 2 2 2 3 4 3 3 5 8 15 34 26 12 5 4 4 2 4 3 4 6 6 4 4 6 5 9 14 15 14 13 12 13 14 13 13 13 16 20 24 25 25 22 23
37 32 40 49 46 49 51 31 17 6 3 2 0 3 6 1 6 7 20 25 25 9 2 4 5 3 3 3 1 3 5 3 3 6 5 6 7 9 10 11 12 14 14 12 13 13 16 19 24 28 30 29 26 26
41 37 42 51 52 49 33 16 7 3 3 2 1 2 2 5 17 23 20 23 8 4 6 4 10 3 5 5 3 4 10 5 4 6 6 7 7 6 7 11 13 13 12 12 14 18 23 27 31 31 31 29 29 29
41 42 51 52 57 37 8 10 4 5 3 5 7 6 7 14 18 15 20 11 5 6 14 5 5 3 3 6 5 8 9 8 6 6 7 7 6 7 9 11 10 11 12 15 21 26 29 30 31 29 27 26 27 27
41 42 56 56 47 15 7 6 7 6 4 6 7 7 10 10 16 19 12 9 11 3 2 2 3 6 7 12 11 9 7 6 6 6 6 6 6 7 5 6 8 12 16 19 23 27 28 28 24 22 21 22 25 28
54 63 61 50 25 6 7 8 5 6 9 7 13 6 8 14 12 6 5 8 3 1 1 4 12 14 13 12 9 6 5 5 4 3 2 3 3 2 3 6 10 15 21 25 26 24 21 21 22 23 24 24 25 28
51 68 47 27 6 5 6 5 10 12 5 10 7 6 9 5 6 5 4 1 2 3 6 12 17 14 12 10 7 5 5 6 5 3 3 3 1 3 9 13 17 22 24 21 21 23 23 23 23 24 26 27 28 31
54 47 18 9 5 4 7 11 4 4 4 6 6 5 2 3 6 7 1 4 3 6 11 16 16 14 11 8 6 5 6 4 3 4 4 3 5 10 14 18 20 19 20 20 21 23 23 23 26 27 29 31 30 28
44 10 6 5 4 4 9 3 5 7 7 2 3 3 1 4 8 2 2 3 6 13 16 16 16 14 11 9 8 8 6 5 5 4 4 7 12 15 18 17 18 20 22 23 22 21 23 26 28 28 27 27 26 25
10 4 6 3 4 5 4 3 2 4 3 3 4 2 2 5 3 2 3 4 12 16 21 20 16 13 11 11 10 8 6 5 3 2 6 12 17 15 14 18 21 23 24 22 24 27 27 27 27 27 26 26 26 26
6 2 3 4 3 4 5 5 5 6 5 3 2 6 5 3 3 4 4 9 15 20 23 22 19 17 14 12 10 9 6 3 2 8 12 11 13 16 17 20 23 22 21 23 25 26 27 28 28 27 27 25 24 25
4 2 3 4 8 10 5 5 6 4 4 5 5 5 5 4 4 3 6 10 12 21 18 16 15 13 12 12 10 7 3 4 9 7 9 12 14 15 17 20 20 21 22 23 24 26 26 26 26 26 26 24 24 24
4 7 7 11 5 3 5 3 3 3 3 6 8 2 6 9 5 8 8 12 16 22 23 22 19 16 13 11 7 4 5 4 5 8 11 13 13 16 16 19 19 20 22 24 23 23 23 24 24 24 24 24 23 20
4 10 9 3 5 7 5 3 3 4 8 11 4 3 4 4 10 10 18 19 21 20 20 19 17 14 12 9 5 3 2 5 7 9 12 13 14 15 18 18 17 19 19 18 19 20 20 20 20 20 19 19 19 19
4 4 6 4 4 3 2 3 6 17 15 10 8 7 6 7 11 17 21 21 21 20 17 14 12 10 8 7 6 2 3 6 8 10 14 16 17 18 17 16 16 16 16 16 17 16 15 15 15 15 15 15 15 15
7 5 6 6 4 3 11 16 15 15 10 6 9 7 8 7 13 20 21 22 22 20 18 14 10 11 10 6 3 1 3 6 10 12 14 15 17 16 14 14 13 13 13 14 14 14 15 15 16 17 17 17 16 17
4 4 5 4 3 10 11 4 4 4 3 4 4 8 8 6 8 17 22 23 22 19 13 13 14 12 8 5 2 1 5 9 12 14 14 16 15 13 12 11 10 11 11 11 12 12 13 14 15 16 16 17 18 18
7 12 11 8 5 3 4 6 4 3 4 3 3 7 6 9 6 14 22 23 19 15 17 18 14 10 6 3 2 4 7 11 13 14 15 14 11 10 9 9 9 10 10 10 10 11 12 12 13 14 15 15 16 17

GFSWCAN_850_spd_072.txt.gz
Wind_Speed
28 29 31 30 29 26 27 24 17 14 14 8 5 11 17 28 29 6 10 12 3 8 10 7 5 6 6 5 4 6 4 2 3 3 2 2 2 2 2 2 3 4 4 2 2 1 5 3 2 4 2 5 7 6
28 28 28 28 28 24 23 17 13 12 8 1 9 11 11 25 25 11 8 11 10 8 11 17 17 13 10 7 10 7 3 3 3 4 1 2 1 1 3 2 1 2 4 3 6 4 2 2 1 4 4 7 6 5
26 27 27 27 24 24 20 13 10 7 3 9 10 11 15 24 23 11 4 6 13 19 12 7 11 12 8 8 9 4 3 4 4 4 5 2 2 2 3 4 2 2 3 2 1 2 3 4 6 7 6 4 4 4
24 24 25 25 23 22 14 11 9 6 0 10 12 12 15 19 24 19 7 3 4 7 5 6 6 8 8 5 4 4 7 8 9 5 4 2 2 2 2 1 2 3 4 3 3 4 4 10 11 9 6 4 4 4
20 22 22 22 20 15 11 12 8 7 4 13 10 10 18 19 17 16 12 4 4 1 6 5 9 9 9 7 7 9 10 10 6 3 3 1 2 2 1 1 3 6 5 4 4 5 3 4 15 12 8 6 5 6
19 20 20 18 15 11 13 10 12 17 15 19 6 16 20 21 21 20 3 4 2 6 6 3 3 4 7 9 8 8 8 6 5 4 3 3 3 1 2 3 3 7 7 7 3 4 8 4 9 11 7 6 6 9
18 18 17 13 8 10 6 4 10 23 23 19 15 20 20 22 23 8 2 8 8 3 3 4 3 3 5 5 5 6 5 4 3 4 2 3 3 3 2 4 5 10 8 6 7 8 5 7 4 9 6 7 9 10
16 14 12 7 5 3 7 8 15 19 23 23 22 20 18 23 19 1 2 15 10 1 3 3 1 1 4 2 3 3 2 3 4 3 2 2 3 1 3 7 7 10 8 7 10 8 6 5 7 7 8 9 10 13
15 12 7 5 5 5 7 13 15 24 21 23 20 24 24 17 3 3 13 10 4 1 6 3 4 3 6 3 3 2 2 3 1 2 0 1 1 4 5 9 14 17 11 7 9 6 4 5 5 6 8 11 15 18
13 11 8 10 8 10 13 19 8 18 23 23 27 8 6 9 5 12 4 4 3 2 2 3 6 2 5 3 2 2 3 1 1 1 1 2 3 10 7 7 9 15 11 7 9 7 8 8 7 9 12 16 19 21
13 12 11 14 12 12 21 19 15 25 31 23 5 4 15 15 13 2 2 2 1 2 3 5 4 5 6 3 2 1 2 0 2 3 2 2 3 4 8 9 10 14 11 8 8 5 5 7 10 14 18 19 20 21
14 13 15 19 16 17 24 20 22 30 17 6 8 19 16 6 2 3 2 2 2 4 7 8 8 5 6 4 4 2 3 2 2 2 1 3 4 4 7 9 13 13 11 10 8 7 8 11 15 18 21 21 20 20
17 17 20 23 21 23 27 25 22 21 17 20 6 6 5 2 4 5 6 4 3 9 12 11 3 7 6 4 5 3 4 1 2 1 3 4 3 6 11 11 12 11 10 9 9 9 12 16 18 19 19 17 20 23
19 22 25 28 27 27 28 30 23 25 14 4 7 2 5 2 5 5 4 3 5 9 25 21 8 4 5 3 3 5 2 3 2 1 5 3 8 8 14 13 12 11 11 10 10 12 16 17 17 15 17 20 22 24
21 25 28 31 29 31 30 33 31 27 4 5 5 5 6 5 2 4 7 9 7 28 31 11 6 4 2 4 1 4 3 2 5 5 3 2 3 10 13 14 12 11 11 11 12 16 17 15 16 17 20 24 25 27
23 24 33 33 32 35 33 36 36 24 5 5 6 2 2 1 3 5 10 8 24 34 12 4 3 4 2 4 3 5 7 6 4 4 4 2 3 7 12 11 10 10 11 12 16 16 16 15 18 22 27 29 30 29
28 35 36 36 35 37 39 39 21 10 7 5 4 7 11 5 5 8 12 17 35 15 3 4 4 4 4 3 1 3 5 3 3 6 4 3 3 5 7 7 7 8 12 15 14 14 15 18 24 29 34 35 32 30
40 38 32 32 41 53 49 18 14 9 7 6 4 6 9 5 7 11 12 35 19 6 6 4 10 3 5 5 3 4 9 5 5 6 6 5 6 6 5 3 7 10 10 11 13 16 20 25 29 32 33 31 30 28
39 34 38 61 65 42 9 13 7 7 4 5 6 8 5 5 9 14 22 28 9 7 10 5 5 3 3 6 5 11 13 11 8 8 7 7 6 4 3 5 6 6 9 13 16 20 24 27 26 25 25 25 26 27
40 34 57 59 52 15 8 6 10 5 7 8 9 10 7 7 14 20 23 12 13 5 3 2 3 6 8 14 14 12 12 10 8 9 8 8 5 2 2 2 5 8 11 15 21 23 22 22 21 22 23 24 26 29
41 47 58 56 28 12 7 7 7 5 9 6 15 11 5 13 13 12 8 10 5 3 2 4 12 17 18 17 14 10 9 8 7 4 6 7 4 3 1 3 8 12 18 20 19 20 21 22 23 23 26 27 28 30
37 58 44 31 11 7 5 8 6 11 5 10 11 7 6 5 6 7 7 4 4 4 7 15 23 22 19 16 12 10 9 8 7 5 4 5 6 4 3 9 13 18 16 18 20 21 22 22 24 27 29 29 27 27
54 40 30 6 6 5 5 17 3 8 4 6 8 5 1 4 8 11 5 4 5 8 16 23 23 20 16 14 12 10 9 8 5 4 5 5 4 4 9 13 15 15 17 18 20 21 22 24 26 26 26 27 28 28
44 11 7 7 5 5 9 5 5 6 7 3 3 3 2 5 10 2 3 4 8 17 21 25 24 21 17 14 12 10 9 7 6 6 5 4 6 10 13 11 14 16 18 20 18 21 23 23 26 27 27 27 26 26
10 7 9 4 6 6 4 5 3 1 3 3 4 1 3 6 2 2 4 5 17 23 25 26 24 19 17 15 12 10 9 8 8 6 5 7 11 9 10 13 15 18 18 18 20 21 23 24 24 25 26 26 26 26
5 4 4 4 5 5 7 6 7 6 4 4 3 6 5 3 3 5 4 16 25 29 32 31 29 24 18 13 13 12 11 9 6 5 8 7 7 11 13 14 16 17 19 20 21 22 23 24 24 25 24 24 24 25
5 5 5 4 12 12 6 5 5 3 5 6 5 5 3 4 5 4 10 19 21 27 27 26 22 17 16 17 15 14 11 7 4 5 5 7 10 11 14 14 15 17 17 18 19 21 22 23 24 23 24 24 23 24
4 9 8 10 7 4 6 4 4 4 4 8 9 5 9 9 5 8 10 19 17 22 27 27 22 19 17 16 14 12 7 4 4 4 7 9 11 12 12 14 15 15 16 17 18 19 20 21 21 22 22 22 22 22
4 13 12 4 6 6 3 3 4 5 9 14 4 3 4 4 10 12 21 21 20 27 28 28 26 23 20 17 13 7 5 5 4 6 8 9 11 11 13 13 13 13 13 14 16 17 17 18 19 20 21 21 21 20
4 6 6 4 4 3 1 4 6 13 12 9 8 7 6 7 11 19 21 25 28 28 25 24 23 20 18 15 10 10 7 5 5 6 9 10 11 12 12 11 11 11 12 12 12 12 13 13 14 15 16 18 19 19
8 5 7 6 4 2 8 14 14 15 11 7 7 5 8 7 11 20 24 26 27 27 27 25 22 19 14 14 12 9 7 5 4 7 9 9 11 11 9 9 9 10 10 11 11 12 13 14 15 16 17 18 18 19
4 4 4 5 3 10 11 5 4 3 3 4 4 4 6 5 8 18 26 30 30 28 24 20 17 16 17 14 10 8 5 3 5 8 9 10 10 9 8 8 8 9 9 10 11 12 12 13 14 15 16 16 16 17
7 10 10 8 5 4 4 6 3 3 4 3 2 6 6 8 6 15 25 30 27 25 22 16 18 17 14 12 10 6 3 3 7 8 9 8 7 6 7 7 8 9 9 10 10 11 12 13 14 14 15 15 15 15

GFSWCAN_850_spd_075.txt.gz
Wind_Speed
31 25 23 22 25 25 22 24 19 16 17 14 3 9 18 24 15 11 19 10 4 7 10 6 4 4 4 4 4 5 3 3 3 3 2 1 2 1 2 1 2 3 3 2 2 1 5 2 1 4 2 4 9 9
28 25 19 20 23 21 22 21 14 13 14 7 10 7 14 24 12 13 20 12 10 8 11 17 17 12 9 7 12 5 3 2 3 4 1 3 2 1 2 1 1 1 4 3 6 4 2 6 4 4 7 8 9 8
26 24 17 18 20 19 19 14 11 9 6 1 11 13 17 24 11 12 16 14 16 17 12 5 9 11 8 9 10 4 4 3 3 4 6 2 3 2 2 3 1 2 3 2 1 3 6 8 9 8 7 6 7 8
23 20 16 19 19 16 15 9 6 3 3 5 9 11 16 18 16 9 11 11 8 7 5 6 7 9 8 5 5 5 8 9 9 5 4 2 2 4 3 2 3 3 5 4 4 6 5 12 13 11 10 9 8 9
22 16 16 18 17 13 10 8 6 2 5 8 5 9 14 17 18 7 5 6 8 3 5 5 9 10 10 8 7 10 10 9 4 3 3 1 2 3 1 1 3 8 6 5 5 4 3 2 4 15 12 10 9 9
21 15 13 16 13 10 12 9 8 9 12 13 4 11 14 15 15 9 1 2 3 6 5 3 2 4 8 8 7 8 8 5 3 3 3 3 2 1 2 3 6 13 10 8 1 2 7 4 3 12 11 9 8 9
20 13 13 12 9 10 7 9 9 14 17 17 6 12 18 16 15 7 3 4 4 3 2 4 3 2 4 5 3 5 5 4 3 3 3 2 2 2 1 3 4 10 9 8 8 5 3 5 3 8 9 8 8 10
16 11 9 8 4 3 4 9 7 19 18 16 9 16 17 16 8 4 2 9 5 2 3 3 2 1 2 2 2 3 3 3 4 3 2 2 2 1 3 10 5 7 7 6 9 7 3 4 6 6 8 9 10 12
13 10 8 6 2 1 4 7 8 12 12 12 16 13 15 12 4 2 8 9 3 0 4 3 4 3 5 2 2 2 2 2 1 1 1 1 1 4 6 6 12 13 9 6 9 7 5 4 4 5 7 9 14 17
10 8 6 6 6 5 9 5 9 11 13 15 20 6 6 10 8 11 5 5 2 3 2 3 5 1 5 2 2 2 2 1 0 1 0 2 4 14 10 5 5 12 11 7 9 6 6 6 6 7 10 14 17 20
8 8 8 11 11 12 15 16 5 16 19 21 6 3 12 15 8 2 2 2 1 1 4 5 5 4 6 3 2 2 2 0 1 3 3 2 3 4 3 9 6 11 13 6 5 3 2 3 6 11 15 18 20 20
10 10 10 14 15 15 19 17 14 23 19 8 3 13 12 4 2 3 2 3 2 4 7 9 8 5 6 4 4 3 3 2 3 3 1 3 4 4 4 9 8 11 12 8 6 4 4 7 11 16 19 20 19 20
13 13 12 16 18 18 22 18 14 25 13 13 4 7 5 1 4 6 6 4 2 11 13 10 4 7 5 4 4 2 3 3 5 0 3 4 3 4 7 8 10 11 10 7 6 6 7 11 15 18 18 17 19 21
17 16 14 19 23 21 23 24 24 24 14 5 5 4 5 3 6 6 4 4 6 8 24 22 9 4 4 3 3 4 2 3 1 2 5 3 3 7 10 10 10 9 7 7 7 7 10 15 17 16 16 18 22 25
20 18 17 22 26 23 24 28 29 29 5 5 4 5 6 7 2 3 7 8 7 22 33 12 6 4 1 3 2 3 3 3 5 5 3 4 6 9 11 11 10 7 6 6 7 10 14 15 14 15 17 22 26 30
22 20 23 26 30 27 25 31 29 23 7 5 7 2 4 1 2 6 11 8 19 31 16 6 3 3 2 4 3 7 7 6 4 4 7 7 6 8 10 10 8 6 5 6 9 13 13 13 16 20 24 28 29 28
26 26 25 30 32 28 29 31 25 8 10 6 6 10 8 5 4 8 14 14 27 27 3 4 5 7 3 2 2 4 5 4 7 10 11 8 7 8 10 9 6 4 5 8 10 10 12 15 20 24 28 26 24 23
34 30 27 32 37 33 33 28 12 11 9 11 5 6 9 8 5 8 12 22 25 11 9 5 9 3 5 6 4 4 8 10 13 12 11 9 9 10 9 6 3 4 5 5 9 12 16 20 23 21 23 25 26 25
35 32 30 36 43 31 18 14 10 7 13 5 8 9 7 7 12 9 16 32 14 11 5 8 3 4 4 7 7 15 21 17 17 15 12 11 11 9 6 2 2 1 4 7 11 16 18 17 19 21 23 23 26 27
34 29 34 35 45 19 10 9 16 8 9 8 9 9 5 5 8 13 21 34 12 6 3 3 5 5 6 12 18 19 20 17 17 18 14 13 10 6 4 3 2 2 7 11 15 14 16 18 19 20 21 24 26 27
36 38 38 43 39 21 11 11 11 9 13 9 9 9 3 9 8 11 18 23 9 5 3 8 8 12 19 19 18 18 17 14 13 9 14 16 11 8 6 4 2 7 12 13 14 17 18 19 20 21 24 24 24 25
29 44 44 41 21 13 7 13 6 14 9 13 18 8 4 5 6 10 14 8 6 8 7 11 22 24 24 21 19 16 15 14 12 10 11 11 12 10 6 3 7 10 11 14 16 18 18 19 21 21 23 24 23 23
43 43 29 17 6 6 7 23 6 8 5 9 10 3 3 4 9 15 8 9 8 13 14 23 28 26 23 21 19 17 15 12 12 11 11 11 10 6 4 7 9 9 12 15 16 16 18 20 21 22 22 22 22 22
37 26 12 13 7 4 11 5 6 6 6 4 5 4 3 6 11 5 4 5 12 18 23 30 30 28 24 20 19 17 16 14 12 12 11 9 7 4 6 7 9 11 12 13 14 16 18 19 20 20 21 21 21 22
10 8 10 5 6 6 5 5 3 2 3 3 5 3 4 7 3 3 4 7 21 27 31 33 31 29 28 24 21 19 16 13 12 11 10 7 4 6 5 8 10 12 13 14 14 15 17 17 18 18 19 20 22 22
5 6 7 6 6 5 6 6 7 7 4 4 3 7 6 3 2 6 4 18 31 35 39 42 38 32 26 22 22 21 19 16 13 10 8 5 5 6 6 8 10 11 13 14 14 15 15 16 17 18 18 19 20 21
6 4 5 8 8 9 5 6 6 3 5 6 5 5 3 4 6 4 9 24 31 35 39 40 37 31 27 25 22 20 19 16 13 8 6 5 5 6 7 8 9 11 12 12 12 13 14 15 16 17 18 18 19 21
4 11 8 17 8 5 6 5 5 6 4 8 10 5 8 7 5 5 8 24 27 33 37 35 30 24 22 23 23 22 20 16 11 9 6 4 5 6 8 9 9 9 10 10 10 10 11 13 14 16 17 18 19 20
2 12 14 2 4 4 2 4 4 6 16 19 6 4 4 4 5 10 15 22 26 32 37 37 33 28 27 26 23 19 13 12 11 8 6 4 5 6 7 8 8 7 7 8 8 8 10 11 13 15 16 17 17 17
2 7 5 2 2 3 2 4 9 19 17 16 12 7 5 6 10 14 20 24 30 36 39 37 36 35 33 30 26 21 18 14 9 6 5 5 6 6 6 6 5 4 5 5 5 6 8 9 10 11 12 13 13 15
6 5 3 4 2 2 8 16 18 19 15 10 12 6 5 5 10 15 20 24 27 30 35 36 33 30 28 26 22 20 18 13 9 6 5 6 5 5 4 3 3 3 4 4 4 5 7 8 9 11 12 13 13 15
4 4 4 5 3 12 13 4 5 5 5 5 4 9 9 5 6 16 24 30 32 33 34 32 32 30 23 17 18 15 12 9 7 4 5 5 5 3 2 1 2 2 3 3 5 6 8 10 11 12 12 13 13 14
6 4 6 8 5 5 6 6 4 4 4 4 4 8 8 12 8 16 27 32 30 32 33 29 25 23 24 21 17 13 10 8 5 3 4 4 3 2 1 1 1 1 2 3 5 8 10 12 13 14 14 13 13 13

GFSWCAN_850_spd_078.txt.gz
Wind_Speed
29 26 23 11 15 19 18 18 15 15 15 10 12 18 21 15 9 11 12 10 8 8 8 5 3 3 2 2 3 4 2 2 1 2 1 2 1 2 1 0 1 1 0 1 1 2 1 6 3 3 2 3 7 8
28 23 18 11 13 17 15 15 10 12 11 9 12 16 19 16 16 15 15 13 15 8 10 12 13 10 6 4 7 3 1 2 1 2 1 2 2 1 1 1 1 2 2 1 4 0 1 7 2 4 4 4 6 8
25 21 15 10 14 15 12 8 7 8 9 6 8 16 16 12 14 16 16 16 18 17 10 5 6 8 6 5 6 2 3 3 2 3 3 2 1 2 2 3 2 4 3 3 3 3 8 7 10 10 8 7 8 8
23 20 16 11 14 11 7 4 3 6 5 6 9 11 18 11 5 12 14 9 7 6 4 3 5 7 5 3 1 1 5 6 7 4 2 1 1 3 1 1 3 1 7 4 5 7 5 11 12 10 12 10 8 8
22 18 13 9 10 7 5 1 2 6 7 9 9 7 13 12 9 5 8 9 6 2 4 4 7 6 7 6 4 6 8 6 3 2 1 1 2 2 0 2 4 9 5 5 3 2 1 2 1 11 11 9 7 7
21 17 11 7 6 6 5 3 6 10 10 8 6 9 13 15 11 3 1 2 6 5 3 3 3 3 5 6 4 4 4 3 2 2 2 1 2 1 2 3 4 11 10 7 1 3 5 4 4 4 10 8 7 7
19 16 11 7 5 5 3 5 9 13 14 13 3 10 11 13 14 2 1 2 2 2 2 4 1 2 3 5 3 2 2 2 2 2 1 2 3 2 2 4 2 6 10 9 7 4 2 3 1 3 5 5 6 7
16 14 7 5 2 1 4 0 11 16 16 14 7 11 14 11 9 3 2 5 3 1 1 3 0 1 3 1 1 2 1 1 3 2 1 2 2 2 4 9 4 4 7 6 7 7 4 1 3 4 5 5 6 7
13 14 8 3 3 4 4 9 16 15 13 11 10 13 12 7 5 4 2 6 3 2 3 3 4 2 5 2 2 1 1 1 1 1 1 1 2 5 4 4 6 10 7 6 10 7 4 3 3 2 3 5 8 12
12 11 9 6 8 9 7 9 13 15 14 15 15 5 5 6 4 6 4 3 4 4 4 3 6 3 5 2 1 1 2 1 1 1 1 3 4 12 12 7 4 10 10 8 10 6 6 5 4 3 5 8 12 16
13 11 9 9 12 13 11 12 15 16 16 12 4 1 3 10 8 4 4 2 2 2 5 5 6 5 7 2 2 2 2 0 2 2 2 2 4 4 4 10 10 10 13 10 7 4 3 3 2 4 8 11 15 16
15 12 10 13 16 17 18 16 14 15 15 10 2 3 8 4 3 2 2 1 4 3 6 6 6 5 6 5 3 2 2 1 3 4 2 3 4 7 5 10 9 12 15 10 7 4 4 3 5 9 12 14 14 15
17 15 12 15 20 20 21 18 12 16 17 7 4 2 3 4 1 6 7 3 2 9 11 8 4 6 6 4 4 2 4 3 6 2 4 5 3 8 10 12 12 12 13 10 8 6 4 5 9 12 13 12 14 17
19 19 16 17 22 23 23 22 17 23 5 4 4 4 5 4 6 5 3 3 6 8 19 17 7 3 4 4 3 3 1 3 2 3 6 2 12 13 13 13 13 13 12 10 8 6 6 9 12 12 12 14 18 23
21 21 19 19 24 25 27 24 20 27 8 4 7 5 5 6 5 4 4 4 6 19 30 10 5 3 2 3 2 3 3 5 6 4 2 9 14 16 17 16 14 12 10 8 7 7 8 12 12 12 14 18 23 25
22 23 26 22 26 26 27 28 29 23 3 4 8 4 7 2 2 5 7 7 14 28 18 5 3 2 4 4 5 8 6 6 3 4 9 15 14 15 17 15 13 10 8 7 7 7 10 10 12 15 18 21 20 20
26 28 27 24 28 29 29 32 24 11 10 7 7 15 8 7 7 6 9 7 20 23 3 4 6 6 3 2 4 5 5 3 7 13 16 14 13 15 16 15 12 9 7 6 7 6 8 12 15 18 17 18 20 20
36 29 26 27 32 32 32 27 13 10 10 10 6 12 13 10 8 6 6 11 21 10 7 5 10 4 5 5 4 4 10 8 14 16 15 14 14 14 14 13 11 8 6 4 4 7 11 15 15 16 18 20 21 23
35 28 29 33 42 33 16 12 11 6 13 6 16 12 10 7 11 13 9 15 19 11 5 6 3 4 4 7 7 12 20 19 21 19 16 15 15 15 15 11 8 6 5 3 6 10 11 13 15 17 18 20 23 24
26 26 32 36 45 17 9 8 13 11 6 9 11 12 9 6 8 11 15 16 25 7 6 4 5 5 7 8 11 19 25 22 23 22 19 18 18 15 11 8 8 6 4 6 8 9 11 13 15 16 19 20 23 24
22 32 29 39 38 23 11 10 10 8 11 10 10 11 6 9 8 11 13 19 13 7 4 14 16 12 10 11 16 21 21 20 21 16 23 24 19 15 12 11 9 6 5 6 7 10 12 13 16 18 19 21 22 22
34 36 31 43 17 15 17 14 5 10 9 3 19 15 6 5 7 11 14 11 8 24 22 17 18 16 19 20 21 21 19 20 17 14 17 17 19 17 16 12 8 6 6 6 9 10 11 14 16 18 19 20 20 20
31 44 20 17 9 14 6 18 8 11 4 9 13 5 3 6 10 17 8 10 15 23 28 28 19 22 23 24 24 23 21 19 18 17 18 17 15 14 13 10 7 6 6 8 9 10 12 14 15 16 17 18 18 18
36 26 15 13 11 6 12 7 8 8 5 4 4 4 3 7 14 5 4 7 17 26 27 29 25 29 26 26 26 25 24 21 18 19 17 16 16 15 12 8 6 6 7 8 8 10 11 12 14 14 15 16 16 16
13 11 9 6 8 6 6 5 5 4 5 5 6 3 4 10 4 5 4 7 26 28 32 30 34 36 36 31 28 26 24 23 22 19 18 17 14 13 10 8 7 7 7 7 8 9 10 11 11 12 13 15 15 15
7 10 10 6 7 6 7 6 8 7 4 5 5 7 8 4 4 6 4 26 26 35 41 40 43 41 37 35 34 31 28 24 20 17 18 16 12 9 8 8 7 6 7 7 7 7 8 8 8 9 11 12 13 15
8 6 8 9 11 12 5 3 7 4 6 6 5 6 4 6 7 5 14 23 34 37 41 44 46 46 42 37 31 27 26 24 20 16 15 14 12 9 8 8 6 6 6 6 6 6 6 6 7 8 10 12 13 14
5 13 8 15 9 11 6 5 6 9 6 9 9 7 11 10 6 8 14 20 27 30 40 42 43 44 39 34 32 32 30 26 23 20 17 15 12 10 9 7 6 5 5 4 5 5 4 5 6 8 9 10 11 12
5 13 19 4 3 6 5 7 7 13 18 20 7 5 6 11 10 10 11 15 25 26 35 43 43 41 34 32 31 29 28 28 26 24 20 15 13 11 9 6 5 5 4 4 4 4 4 4 6 7 8 9 10 10
8 17 3 5 8 8 5 9 7 18 19 18 18 10 11 14 18 14 13 15 25 27 32 42 46 45 42 40 38 34 29 24 20 15 14 13 10 8 6 5 5 4 4 4 4 4 4 5 5 6 8 9 9 9
21 8 4 3 3 4 5 10 14 14 14 13 14 9 13 11 14 17 19 20 25 30 35 41 44 44 42 41 39 37 33 28 23 18 14 10 7 5 5 5 5 5 4 4 4 3 4 5 6 8 9 10 11 11
9 7 5 3 1 9 13 6 7 4 4 4 7 10 9 8 8 19 21 23 27 31 36 41 43 41 38 33 30 26 20 21 20 16 11 8 6 5 5 5 5 5 4 4 3 3 4 6 8 10 11 11 11 11
7 6 5 6 5 3 7 6 4 2 2 1 1 4 5 10 3 10 20 26 28 32 37 37 34 32 31 28 26 23 21 19 16 12 9 7 5 5 6 6 6 5 4 3 3 3 5 8 9 10 10 10 10 10

GFSWCAN_850_spd_081.txt.gz
Wind_Speed
22 24 21 23 12 12 13 11 10 12 11 10 16 15 9 6 10 14 13 11 12 8 5 4 2 2 1 1 3 4 2 2 1 1 1 1 1 1 2 0 2 2 2 1 1 2 2 9 4 3 3 2 2 1
21 23 20 20 14 11 11 8 6 9 9 9 15 13 13 16 11 11 13 13 19 8 8 10 9 6 4 4 3 2 3 1 2 0 1 1 2 1 2 1 2 2 3 3 3 3 2 10 1 1 2 1 1 2
18 21 20 19 13 9 7 5 3 7 6 8 13 10 11 16 16 13 15 13 17 14 8 4 1 5 5 5 4 1 0 1 2 0 2 1 2 1 2 2 2 3 3 3 4 4 6 5 5 5 3 2 2 3
15 18 17 18 12 2 3 2 1 5 4 9 11 13 7 10 12 12 9 7 9 5 3 2 4 2 3 2 2 2 4 1 2 1 2 1 2 1 1 3 3 3 6 4 6 9 4 8 7 5 6 7 5 5
14 17 15 16 11 2 3 4 2 5 6 5 8 9 13 7 2 7 9 7 4 3 3 5 5 3 4 2 2 1 3 1 2 2 1 1 1 2 1 2 6 9 6 5 2 5 1 3 0 4 7 6 5 5
13 16 14 13 10 5 5 7 8 10 10 4 3 7 11 13 6 2 3 5 6 5 2 3 3 5 4 5 4 3 2 0 1 2 1 0 1 2 2 3 4 10 5 4 0 2 3 2 3 2 5 5 6 5
15 13 13 11 9 6 4 9 10 13 13 9 2 6 9 13 9 1 2 3 0 2 2 2 2 3 6 4 2 0 1 1 0 1 1 1 2 2 3 4 3 5 7 7 6 3 2 3 1 2 3 4 4 6
14 13 10 10 7 5 4 8 14 18 18 14 6 7 6 11 10 5 4 2 3 2 1 2 1 2 6 3 3 2 1 0 1 1 1 2 1 4 5 11 5 4 6 7 7 8 5 4 3 3 4 4 4 5
13 14 10 8 7 4 2 2 15 17 17 12 10 9 5 6 3 5 5 4 5 3 2 2 3 2 6 2 2 2 1 2 2 2 3 2 3 6 6 7 9 11 8 7 10 8 6 5 4 4 4 4 5 7
13 14 13 7 10 10 5 11 17 17 15 13 15 4 3 4 6 3 4 2 3 5 5 3 3 2 3 4 3 3 1 1 2 2 2 4 5 20 11 9 8 10 11 10 12 8 9 7 6 5 5 5 8 11
15 14 13 10 15 16 12 14 16 18 20 14 4 3 1 4 4 2 3 3 2 3 5 3 4 3 5 2 2 2 1 0 2 2 2 3 4 5 10 15 16 10 13 11 9 6 6 5 6 5 5 7 10 12
18 16 15 13 19 22 19 16 21 23 12 9 6 7 7 2 1 2 3 2 4 2 3 4 4 5 5 4 2 2 2 1 3 3 2 4 4 9 11 11 14 14 15 14 10 7 6 5 4 4 7 10 12 13
22 18 17 16 21 23 23 21 20 13 11 8 3 4 3 4 4 6 5 3 3 5 7 6 3 4 5 3 3 2 3 4 1 3 4 5 4 10 11 15 15 15 16 14 11 8 6 5 4 7 10 12 13 15
24 21 20 19 22 26 26 24 19 15 12 4 4 4 5 4 5 3 1 2 1 2 11 10 4 3 2 4 3 4 1 2 3 4 6 3 16 16 15 15 15 16 16 14 11 9 7 6 7 10 12 12 15 19
27 23 22 22 23 28 27 27 20 20 8 5 5 5 6 4 3 4 4 3 3 6 13 8 4 3 2 2 2 3 3 5 5 5 2 6 19 20 18 17 15 16 15 14 11 9 8 8 10 11 12 15 19 20
30 26 29 25 25 28 28 27 25 23 5 5 7 3 4 3 3 5 8 6 6 11 9 2 3 2 4 3 4 8 4 6 4 3 5 15 19 19 18 17 16 15 13 12 11 9 8 9 9 11 15 18 18 20
36 37 30 29 28 31 30 35 21 8 9 6 6 13 8 4 5 6 6 9 15 16 2 2 4 5 3 2 4 5 6 3 2 6 14 15 17 17 18 18 16 14 14 12 10 8 7 8 11 15 15 17 18 19
43 36 28 33 34 35 35 25 13 11 10 11 5 10 13 10 7 8 10 14 16 16 9 4 2 4 5 4 4 4 13 7 6 13 16 15 15 16 17 16 16 14 12 10 8 6 6 10 12 14 16 17 19 20
43 33 31 38 42 33 16 14 12 6 12 6 16 12 13 10 15 14 11 15 19 17 10 8 4 4 5 8 6 8 11 15 16 17 15 14 14 16 17 16 14 13 11 9 6 6 9 10 13 14 15 17 19 19
40 31 34 41 43 17 9 8 12 11 6 7 10 14 13 9 16 17 18 19 22 8 7 5 7 7 7 11 16 18 16 21 23 21 17 18 18 18 17 15 13 12 11 8 7 8 9 12 13 13 15 16 18 19
33 33 32 40 39 18 9 9 10 7 9 11 10 13 6 11 12 13 14 22 13 7 5 16 24 32 29 27 26 21 16 26 28 22 24 24 22 20 18 16 14 13 11 8 8 9 10 11 12 13 15 16 17 18
39 42 31 41 16 15 16 15 7 9 7 4 8 12 6 7 9 11 13 13 9 16 20 22 29 31 31 28 26 22 22 25 23 18 16 19 25 23 21 18 17 14 11 9 9 10 10 11 12 13 15 16 16 16
47 37 17 18 9 13 6 21 12 12 5 7 10 6 4 6 9 15 8 11 15 34 35 34 35 31 32 28 21 22 25 25 24 19 19 21 18 17 17 18 16 14 11 10 10 9 10 11 12 13 13 13 14 14
37 27 9 11 19 6 11 8 7 10 8 6 6 4 4 6 9 5 5 12 28 25 28 35 37 31 30 31 25 30 29 28 24 20 21 21 21 20 19 18 15 13 11 10 9 9 10 10 11 11 11 12 12 13
12 11 8 7 8 7 7 9 6 6 5 5 6 4 4 8 4 5 4 7 30 35 33 33 34 35 36 38 32 33 32 31 28 26 24 22 20 21 21 19 16 14 12 10 9 9 9 8 9 8 9 10 11 11
7 11 14 14 10 7 8 7 9 6 5 5 6 5 8 4 5 7 5 28 32 33 37 41 41 40 39 43 38 39 39 34 29 27 25 23 21 19 16 16 15 13 12 11 10 9 8 7 6 6 7 8 9 10
7 6 8 10 10 10 6 5 8 4 7 7 6 7 5 6 6 4 30 32 27 33 41 44 45 44 44 45 40 41 38 34 32 28 21 21 20 20 17 14 13 12 11 10 10 8 7 6 5 5 6 7 8 9
6 12 8 14 8 11 5 5 7 10 7 9 14 7 9 10 9 16 13 25 36 37 32 36 41 45 43 43 44 44 39 37 31 26 23 23 22 21 18 15 13 12 10 10 9 7 6 5 5 5 5 6 7 8
6 14 18 6 4 5 6 7 9 14 18 19 9 9 8 23 28 24 22 25 25 28 30 30 36 40 39 37 39 41 40 40 39 34 31 28 26 24 20 16 14 12 11 10 8 7 6 5 5 5 5 7 8 9
9 22 5 7 7 9 11 16 10 22 23 23 26 24 26 29 28 30 31 25 25 25 24 29 34 36 39 40 43 42 40 38 36 31 27 25 23 17 16 14 13 13 11 10 8 7 6 5 5 6 7 8 9 10
24 12 5 5 4 7 9 19 15 14 18 17 20 16 16 16 24 28 33 32 25 24 25 25 29 35 39 44 46 46 44 39 34 29 22 17 19 16 13 13 14 13 11 9 7 7 6 5 5 6 8 10 11 12
12 9 5 5 3 6 8 9 6 6 6 6 7 10 9 7 8 16 28 34 29 25 26 25 25 34 39 41 43 42 38 36 35 29 23 18 16 14 13 13 13 12 10 8 7 7 6 5 6 7 9 11 11 11
6 6 5 6 5 5 7 7 6 2 3 3 4 6 8 6 6 12 15 22 25 23 26 26 28 30 39 38 38 36 30 30 27 23 20 17 13 12 12 13 12 11 9 8 8 7 5 4 5 7 8 9 9 9

GFSWCAN_850_spd_084.txt.gz
Wind_Speed
14 16 22 24 20 14 11 6 7 8 9 6 6 7 9 8 9 9 7 8 9 6 4 4 4 2 1 3 0 2 2 2 3 2 2 1 2 1 2 1 3 2 2 1 2 1 4 6 2 0 2 2 3 3
14 15 20 22 19 11 8 3 4 4 7 4 6 7 11 11 7 3 8 7 13 3 5 6 6 4 3 3 2 2 1 3 5 2 1 1 2 1 1 2 0 2 2 1 1 2 1 8 3 4 3 2 2 1
13 16 18 20 18 11 5 1 4 4 5 3 3 4 10 13 10 7 8 9 12 8 5 2 2 2 1 3 4 1 2 2 2 3 3 1 2 2 2 3 2 4 3 2 4 1 5 7 6 7 4 4 5 5
12 14 16 17 17 10 5 4 5 5 7 4 9 7 3 9 9 10 5 5 6 3 1 1 2 2 0 1 2 2 2 2 2 2 2 1 1 1 2 2 2 3 6 4 4 7 5 7 7 5 7 7 6 7
13 13 16 16 14 10 6 6 7 6 9 7 5 13 12 9 5 6 8 5 3 2 1 1 2 3 1 2 1 1 2 1 1 2 1 2 1 2 2 2 4 10 6 4 5 2 4 5 6 5 7 7 6 5
11 13 16 16 12 10 7 8 8 9 9 9 5 6 9 12 8 6 3 5 4 4 2 0 3 6 5 2 2 1 2 2 2 1 1 2 2 2 2 3 7 19 13 6 6 6 4 5 4 4 6 8 6 5
12 12 15 14 12 8 9 10 11 13 12 9 6 4 7 13 10 4 4 8 4 2 0 2 2 3 7 4 2 2 2 3 3 2 3 2 3 3 3 4 5 12 12 10 9 7 4 6 5 5 6 5 4 3
15 12 14 13 12 9 9 10 12 13 16 12 7 5 4 5 13 9 6 9 5 3 2 1 3 2 5 3 3 2 2 2 3 3 2 3 2 4 5 11 10 11 12 12 11 11 7 6 6 5 4 3 2 2
17 13 13 13 11 9 8 10 14 16 15 13 7 6 4 4 5 8 7 8 6 4 3 3 3 3 3 3 3 2 2 2 3 2 3 3 3 6 8 13 19 18 14 10 14 10 9 7 6 5 5 4 3 4
19 15 13 11 10 9 6 4 11 17 17 12 10 3 2 3 4 3 4 3 2 4 5 4 2 0 2 2 1 0 1 2 2 3 2 3 5 25 20 14 15 15 15 13 15 12 12 11 9 8 6 5 4 6
22 17 15 11 10 12 10 15 19 20 16 14 6 3 3 6 7 3 2 1 1 3 5 3 5 3 4 2 2 2 2 1 1 3 1 3 4 4 13 24 15 14 15 12 9 6 9 8 10 9 7 5 6 9
23 21 17 14 13 18 16 17 19 20 14 8 4 4 7 3 3 2 2 1 3 3 1 1 2 2 4 4 1 1 1 2 5 2 0 4 4 5 9 18 18 15 15 16 11 9 9 8 7 7 5 6 8 10
25 24 21 17 15 22 20 18 18 18 9 8 3 3 4 3 2 7 6 3 2 7 8 5 1 2 3 3 3 1 1 4 2 1 4 5 2 6 10 13 15 17 16 15 13 10 8 7 6 5 6 9 10 11
29 27 25 20 19 25 25 23 24 18 10 3 5 3 5 3 5 4 3 4 6 6 12 12 7 4 3 2 3 3 2 2 3 3 6 3 12 14 14 14 17 18 17 15 13 10 8 6 5 6 9 10 12 14
35 30 29 24 23 27 29 25 26 18 7 5 5 5 6 8 5 5 7 5 8 14 18 9 3 3 1 1 2 2 2 4 6 5 3 6 8 18 18 17 17 16 17 16 12 9 7 6 6 9 10 11 15 16
37 33 34 28 26 29 32 29 27 21 6 5 8 3 6 2 4 8 11 8 12 19 12 5 3 3 4 3 2 7 5 7 4 4 8 7 12 16 16 16 15 14 15 14 11 9 7 7 8 9 12 14 15 17
41 45 39 33 29 31 34 31 24 10 10 6 6 15 10 5 6 13 12 10 17 19 3 4 6 8 1 2 4 5 5 4 3 11 12 10 15 16 16 15 15 15 14 13 11 9 7 7 8 11 13 14 16 18
48 47 42 39 35 36 34 26 12 10 10 12 6 11 17 11 6 9 11 14 18 13 7 5 6 3 5 5 4 4 12 16 18 15 10 12 14 15 15 16 16 15 14 12 10 8 7 7 10 12 14 16 17 18
49 49 46 43 46 35 17 16 12 6 13 7 16 13 13 11 20 19 15 17 17 14 6 7 3 4 5 9 11 10 10 13 16 14 14 15 15 16 17 17 16 15 13 11 9 8 7 9 10 13 14 15 18 18
45 47 45 47 51 15 11 8 14 12 8 12 13 16 16 11 17 20 20 20 26 8 6 4 6 9 12 19 15 13 16 19 18 16 19 19 18 18 20 19 18 16 14 12 10 8 9 9 11 12 13 16 18 17
39 42 41 49 35 11 11 11 10 8 9 13 11 17 8 15 16 14 17 23 13 7 6 19 30 36 30 28 31 33 33 27 24 24 25 24 22 22 22 21 19 16 14 13 11 9 10 10 12 12 13 15 16 15
38 47 44 35 11 14 9 15 7 10 9 4 11 13 6 6 8 11 12 16 11 24 27 33 41 44 43 39 37 36 34 31 24 22 28 22 26 27 27 25 22 19 17 14 11 10 10 11 11 12 13 14 13 13
46 40 31 16 7 14 5 20 11 13 5 6 9 5 3 6 8 15 8 13 21 38 43 46 50 48 44 40 39 39 35 31 25 26 28 25 24 25 24 22 21 20 18 14 12 11 11 11 11 10 12 12 11 11
42 21 10 18 16 7 12 9 8 11 8 5 5 3 4 8 12 6 5 8 28 26 32 42 48 45 43 43 45 44 41 37 30 26 28 26 26 27 24 22 21 20 17 14 13 12 11 11 10 10 10 9 9 10
10 8 9 6 11 7 6 6 5 4 4 4 5 4 3 8 4 4 4 6 19 33 38 42 48 45 43 43 42 44 42 38 36 34 34 29 28 27 26 23 23 21 18 15 14 12 11 10 9 9 8 7 7 8
6 8 13 12 7 7 8 7 9 6 4 4 6 5 8 4 4 8 4 17 34 37 39 41 42 42 43 46 43 42 41 38 36 38 35 33 33 32 28 27 25 22 18 15 15 13 11 10 9 9 7 7 6 7
9 7 11 9 12 10 6 6 12 4 6 7 4 6 4 5 8 5 17 29 34 36 36 36 34 37 40 40 39 42 41 30 38 39 35 32 30 27 23 21 19 16 14 13 14 13 11 9 8 8 6 6 6 6
6 12 8 13 7 10 5 5 6 8 5 11 13 7 9 10 7 15 15 18 19 20 23 30 34 34 34 33 36 35 36 28 36 36 28 28 29 28 27 23 19 15 13 12 12 11 11 9 8 7 6 6 6 6
6 15 16 5 5 6 6 6 7 11 17 19 9 6 7 21 32 33 28 27 25 23 26 28 30 28 25 26 29 25 25 31 40 39 36 36 35 33 30 25 20 15 14 12 12 11 10 8 8 7 6 6 7 8
9 23 6 6 7 7 10 18 14 21 21 27 29 22 26 35 35 33 32 33 32 31 31 33 28 23 26 28 24 25 27 31 40 45 45 42 38 31 25 22 17 15 13 13 12 12 10 9 9 7 6 7 8 8
25 11 4 5 5 7 11 21 17 17 23 21 26 23 26 22 28 30 32 34 33 31 30 30 27 24 26 30 27 26 31 36 42 42 38 32 24 22 21 18 16 15 13 13 13 11 10 9 7 5 6 8 9 9
11 7 5 4 2 7 9 13 11 10 8 6 6 9 11 10 10 25 28 25 26 30 34 33 29 26 22 16 23 26 27 33 44 41 35 29 22 23 18 17 17 15 14 14 13 11 11 8 5 4 6 8 8 9
5 5 5 6 5 6 10 9 6 2 3 3 6 7 10 8 8 15 24 24 22 24 28 30 26 21 16 18 20 22 29 23 36 35 28 23 18 17 15 16 16 15 14 14 13 11 9 6 4 4 5 5 6 7

GFSWCAN_850_spd_087.txt.gz
Wind_Speed
16 12 15 16 18 18 13 6 5 5 7 3 4 10 12 8 6 4 2 2 3 2 4 1 0 1 1 1 2 2 3 3 4 3 2 2 1 2 2 3 2 3 2 2 1 0 4 6 3 5 4 5 6 5
16 12 13 15 15 15 8 2 3 1 5 6 6 7 11 12 5 3 2 3 4 1 4 3 2 0 1 1 1 1 1 1 1 1 1 1 1 1 2 3 0 2 5 3 6 5 4 10 4 6 6 5 5 5
17 12 12 14 14 14 8 4 4 4 3 7 3 5 7 11 9 5 5 4 4 3 2 1 1 2 2 2 1 1 2 2 1 3 2 2 2 2 2 4 2 3 4 2 3 1 5 10 9 8 6 6 5 5
19 14 12 12 12 12 9 5 7 6 8 7 10 4 3 7 8 6 3 4 3 1 0 2 3 3 3 3 4 3 2 1 2 3 1 0 1 2 3 4 3 6 5 4 4 7 2 6 11 8 7 6 6 6
19 15 13 11 11 11 8 7 9 9 10 10 8 8 5 4 5 6 8 6 4 2 2 3 6 6 4 4 3 3 3 2 2 2 1 2 2 1 3 2 4 9 7 5 5 8 4 3 10 8 8 7 7 6
19 16 15 11 10 11 9 8 10 11 11 11 8 6 5 6 4 4 2 4 6 5 4 3 3 7 7 5 4 3 3 3 3 2 3 3 2 2 1 3 9 13 15 16 5 9 5 7 7 7 8 8 7 6
21 17 16 13 8 11 11 9 11 13 13 11 10 7 6 8 8 4 1 6 5 4 2 4 6 3 4 5 4 4 4 4 3 3 3 2 2 4 2 5 6 10 16 14 10 9 5 8 5 7 7 7 5 4
23 19 17 16 9 9 10 10 10 13 16 14 9 8 5 6 9 8 8 5 5 3 3 1 3 2 1 1 3 3 3 3 5 4 2 3 2 4 5 11 10 12 15 13 12 13 9 6 8 8 7 6 5 4
23 21 19 17 12 9 10 11 11 13 16 16 10 9 7 5 5 10 10 6 8 6 2 2 3 3 1 0 2 1 2 1 2 2 3 2 3 6 9 11 13 19 14 12 14 11 9 9 9 9 8 7 5 4
24 23 21 17 13 10 9 10 9 13 16 15 10 5 5 4 5 7 5 3 2 4 5 5 5 2 4 4 2 1 1 1 1 2 2 3 5 28 30 21 13 15 20 13 16 13 14 13 12 10 8 6 5 5
26 25 23 18 15 12 10 8 12 21 19 14 5 5 5 4 6 4 3 3 3 2 5 4 8 2 6 2 3 4 2 1 1 4 2 3 4 5 9 16 28 17 18 15 11 8 11 8 12 11 9 6 5 6
29 28 26 21 17 15 15 17 21 24 17 11 3 3 3 4 2 3 2 0 3 5 5 3 4 5 3 2 1 1 1 3 4 3 1 4 4 10 8 5 16 17 16 16 13 9 11 10 11 9 8 6 5 8
33 30 27 25 21 20 21 23 23 19 13 8 4 2 3 4 2 7 7 4 2 9 10 7 1 4 3 3 3 2 2 4 1 1 4 5 10 9 4 9 12 13 14 15 13 11 10 10 10 8 6 5 6 7
36 34 30 29 25 24 25 27 24 22 13 5 6 2 5 3 5 5 4 4 6 9 17 15 6 3 2 2 3 3 3 2 2 2 6 3 10 12 10 12 14 16 16 16 15 14 12 10 8 6 5 7 7 9
37 38 34 33 29 27 30 28 28 24 9 6 6 5 6 9 4 4 6 7 7 13 21 8 4 4 1 2 2 2 3 4 6 5 3 7 17 10 13 15 16 18 19 18 17 15 12 10 8 6 6 6 9 11
39 38 41 38 34 30 32 29 32 23 7 7 8 3 8 2 4 7 12 8 14 21 12 5 4 3 4 4 3 7 5 7 4 4 8 18 18 11 13 14 15 16 17 18 17 14 12 10 8 6 5 7 9 12
43 49 47 41 38 35 37 38 27 10 10 8 9 19 11 4 7 13 16 13 18 20 3 4 6 9 2 2 4 5 6 4 7 11 17 18 14 10 13 15 16 16 18 18 16 14 12 9 8 6 7 8 10 12
50 50 47 45 42 40 40 24 16 10 11 12 7 16 22 13 8 9 15 17 21 14 9 5 7 3 6 6 4 4 17 13 11 12 13 14 12 11 14 16 16 16 17 17 15 13 11 9 8 8 8 9 10 13
48 50 48 49 50 38 20 14 13 7 13 10 18 15 18 12 22 15 14 20 20 16 6 6 3 4 5 9 10 13 13 12 11 13 18 17 13 14 16 17 18 19 19 18 16 13 10 9 9 9 9 10 11 13
47 47 47 52 55 16 11 9 14 9 7 12 12 20 15 12 19 22 24 24 29 10 6 4 6 15 13 25 28 28 24 18 14 20 26 23 19 19 22 22 23 21 20 19 17 15 13 10 10 10 10 10 12 12
45 43 46 57 37 11 11 10 10 7 9 10 12 15 8 13 15 15 21 26 20 9 5 31 37 41 39 39 37 32 25 26 30 30 29 31 26 23 24 23 23 24 24 22 19 15 14 10 10 10 10 11 12 12
40 57 47 39 12 12 8 14 6 11 9 5 15 13 7 7 9 17 16 20 11 24 31 33 44 51 49 49 48 45 43 42 40 39 35 33 32 25 29 29 28 29 27 23 19 15 12 11 10 10 9 10 11 11
50 43 31 15 7 11 7 19 9 13 4 7 11 5 3 6 8 15 8 13 16 34 38 47 56 55 49 50 44 46 45 42 43 43 40 37 33 27 27 30 30 29 27 23 20 16 12 12 12 10 9 9 9 9
40 24 11 17 11 6 12 10 10 10 8 5 6 4 4 8 11 4 5 6 23 29 33 40 43 45 43 45 48 50 48 46 44 43 40 35 31 30 30 29 30 28 24 19 19 16 13 13 12 10 9 8 7 8
11 9 11 6 11 6 5 5 5 4 4 4 5 2 4 9 3 4 4 6 25 34 34 36 40 41 40 42 44 44 39 37 39 39 38 38 33 30 29 28 28 27 25 26 23 17 13 14 13 11 10 8 6 7
6 10 14 11 7 7 8 7 9 6 5 4 6 8 8 4 3 8 4 20 32 33 32 32 32 35 36 37 40 40 38 36 33 32 32 33 33 33 34 34 35 34 30 26 20 17 13 15 14 12 10 8 6 6
7 6 12 9 13 11 5 5 11 4 6 7 6 5 4 5 7 5 12 24 27 20 18 18 22 27 29 28 26 26 27 27 26 25 24 25 26 32 34 35 34 28 22 23 18 14 13 15 14 12 10 8 6 6
6 13 9 13 7 9 6 4 6 8 6 11 13 6 10 10 7 8 9 7 9 9 10 11 16 20 24 22 19 22 24 23 20 19 19 16 18 25 28 26 24 20 19 15 14 13 14 14 13 11 9 8 6 7
6 15 17 5 5 6 6 7 7 11 17 21 9 6 6 11 12 13 14 11 13 17 19 22 22 21 23 20 19 19 19 22 21 24 26 22 24 28 29 29 27 24 19 15 12 13 13 12 11 10 9 7 6 7
8 22 5 5 7 8 9 16 13 21 29 21 20 10 15 21 20 24 27 28 27 27 26 25 25 25 25 23 23 21 20 20 21 25 28 25 29 31 33 32 30 24 18 15 14 16 16 14 12 10 9 7 7 8
21 11 4 4 4 5 11 19 16 23 27 26 26 24 24 24 27 31 33 33 29 26 27 29 29 28 27 27 26 23 19 19 19 23 25 25 27 31 33 29 26 20 18 14 15 15 14 12 12 10 8 7 7 7
11 8 5 4 2 9 15 16 13 12 12 10 9 14 16 9 9 28 30 25 26 28 29 26 26 25 25 25 21 19 15 17 14 15 25 26 23 25 27 27 24 20 15 16 15 14 14 12 11 9 8 7 5 6
5 5 6 7 3 4 8 8 6 1 2 3 8 12 14 9 8 18 25 24 27 28 26 24 23 23 20 17 15 13 17 17 12 13 24 25 22 22 26 26 22 16 18 16 16 15 14 13 11 9 7 5 4 5